| time (UTC) | temp F | wind direction | speed knots | gust knots | rain 1hr in | rain 24hr in | rain mn in | humidity % | barometer mb |
| 20260506051349 | 66 | 194 | 1.7 | 2.6 | 0.00 | 0.00 | 0.00 | 100 | 1017.8 |
| 20260506051248 | 66 | 194 | 1.7 | 2.6 | 0.00 | 0.00 | 0.00 | 100 | 1017.7 |
| 20260506051149 | 66 | 194 | 1.7 | 2.6 | 0.00 | 0.00 | 0.00 | 100 | 1017.7 |
| 20260506051109 | 67 | 194 | 1.7 | 2.6 | 0.00 | 0.00 | 0.00 | 100 | 1017.7 |
| 20260506050949 | 66 | 194 | 1.7 | 2.6 | 0.00 | 0.00 | 0.00 | 100 | 1017.7 |
| 20260506050847 | 66 | 194 | 1.7 | 2.6 | 0.00 | 0.00 | 0.00 | 100 | 1017.7 |
| 20260506050748 | 66 | 194 | 1.7 | 2.6 | 0.00 | 0.00 | 0.00 | 100 | 1017.7 |
| 20260506050650 | 66 | 194 | 1.7 | 2.6 | 0.00 | 0.00 | 0.00 | 100 | 1017.7 |
| 20260506050549 | 66 | 194 | 1.7 | 2.6 | 0.00 | 0.00 | 0.00 | 100 | 1017.7 |
| 20260506050447 | 66 | 194 | 1.7 | 2.6 | 0.00 | 0.00 | 0.00 | 100 | 1017.7 |
| 20260506050348 | 66 | 194 | 1.7 | 2.6 | 0.00 | 0.00 | 0.00 | 100 | 1017.7 |
| 20260506050248 | 66 | 194 | 1.7 | 3.5 | 0.00 | 0.00 | 0.00 | 100 | 1017.7 |
| 20260506050149 | 66 | 194 | 1.7 | 3.5 | 0.00 | 0.00 | 0.00 | 100 | 1017.8 |
| 20260506045047 | 67 | 193 | 0.0 | 2.6 | 0.00 | 0.00 | 0.00 | 100 | 1017.8 |
| 20260506044949 | 67 | 193 | 0.0 | 2.6 | 0.00 | 0.00 | 0.00 | 100 | 1017.8 |
| 20260506044847 | 67 | 193 | 0.0 | 2.6 | 0.00 | 0.00 | 0.00 | 100 | 1017.9 |
| 20260506044748 | 67 | 193 | 0.0 | 2.6 | 0.00 | 0.00 | 0.00 | 100 | 1017.8 |
| 20260506044649 | 67 | 193 | 0.9 | 2.6 | 0.00 | 0.00 | 0.00 | 100 | 1017.9 |
| 20260506044549 | 67 | 193 | 0.9 | 2.6 | 0.00 | 0.00 | 0.00 | 100 | 1017.8 |
| 20260506044448 | 67 | 193 | 0.9 | 2.6 | 0.00 | 0.00 | 0.00 | 100 | 1017.8 |
| 20260506044348 | 67 | 193 | 0.9 | 2.6 | 0.00 | 0.00 | 0.00 | 100 | 1017.9 |
| 20260506044247 | 67 | 193 | 0.9 | 3.5 | 0.00 | 0.00 | 0.00 | 100 | 1017.9 |
| 20260506044149 | 67 | 193 | 0.9 | 3.5 | 0.00 | 0.00 | 0.00 | 100 | 1018.0 |
| 20260506044047 | 67 | 193 | 0.9 | 3.5 | 0.00 | 0.00 | 0.00 | 100 | 1017.9 |
| 20260506043949 | 67 | 193 | 0.9 | 3.5 | 0.00 | 0.00 | 0.00 | 100 | 1018.0 |
| 20260506043847 | 67 | 193 | 1.7 | 3.5 | 0.00 | 0.00 | 0.00 | 100 | 1017.9 |
| 20260506043747 | 67 | 193 | 1.7 | 3.5 | 0.00 | 0.00 | 0.00 | 100 | 1018.1 |
| 20260506043647 | 67 | 193 | 1.7 | 3.5 | 0.00 | 0.00 | 0.00 | 100 | 1018.1 |
| 20260506043549 | 67 | 194 | 1.7 | 3.5 | 0.00 | 0.00 | 0.00 | 100 | 1018.1 |
| 20260506043448 | 67 | 194 | 1.7 | 3.5 | 0.00 | 0.00 | 0.00 | 100 | 1018.1 |
| 20260506043348 | 67 | 194 | 1.7 | 3.5 | 0.00 | 0.00 | 0.00 | 100 | 1018.1 |
| 20260506043248 | 67 | 192 | 1.7 | 2.6 | 0.00 | 0.00 | 0.00 | 100 | 1018.1 |
| 20260506043149 | 67 | 192 | 1.7 | 2.6 | 0.00 | 0.00 | 0.00 | 100 | 1018.0 |
| 20260506043048 | 67 | 192 | 1.7 | 2.6 | 0.00 | 0.00 | 0.00 | 100 | 1018.1 |
| 20260506042948 | 67 | 192 | 1.7 | 2.6 | 0.00 | 0.00 | 0.00 | 100 | 1018.1 |
| 20260506042849 | 67 | 192 | 1.7 | 2.6 | 0.00 | 0.00 | 0.00 | 100 | 1018.1 |
| 20260506042749 | 67 | 192 | 1.7 | 2.6 | 0.00 | 0.00 | 0.00 | 100 | 1018.1 |
| 20260506042648 | 67 | 192 | 1.7 | 2.6 | 0.00 | 0.00 | 0.00 | 100 | 1018.1 |
| 20260506042608 | 67 | 192 | 1.7 | 2.6 | 0.00 | 0.00 | 0.00 | 100 | 1018.0 |
| 20260506042449 | 67 | 192 | 1.7 | 2.6 | 0.00 | 0.00 | 0.00 | 100 | 1018.0 |
| 20260506042349 | 67 | 192 | 1.7 | 2.6 | 0.00 | 0.00 | 0.00 | 100 | 1018.0 |
| 20260506042248 | 67 | 192 | 1.7 | 2.6 | 0.00 | 0.00 | 0.00 | 100 | 1018.1 |
| 20260506042149 | 67 | 192 | 0.9 | 2.6 | 0.00 | 0.00 | 0.00 | 100 | 1018.0 |
| 20260506042109 | 67 | 192 | 0.9 | 2.6 | 0.00 | 0.00 | 0.00 | 100 | 1018.1 |
| 20260506041949 | 67 | 192 | 0.9 | 2.6 | 0.00 | 0.00 | 0.00 | 100 | 1018.1 |
| 20260506041847 | 67 | 193 | 0.9 | 3.5 | 0.00 | 0.00 | 0.00 | 100 | 1018.1 |
| 20260506041748 | 67 | 193 | 0.9 | 3.5 | 0.00 | 0.00 | 0.00 | 100 | 1018.1 |
| 20260506041648 | 67 | 193 | 0.9 | 3.5 | 0.00 | 0.00 | 0.00 | 100 | 1018.1 |
| 20260506041548 | 67 | 193 | 0.9 | 3.5 | 0.00 | 0.00 | 0.00 | 100 | 1018.1 |
| 20260506041447 | 67 | 193 | 0.9 | 3.5 | 0.00 | 0.00 | 0.00 | 100 | 1018.1 |
| 20260506041348 | 67 | 192 | 0.9 | 3.5 | 0.00 | 0.00 | 0.00 | 100 | 1018.1 |
| 20260506041248 | 67 | 192 | 0.9 | 3.5 | 0.00 | 0.00 | 0.00 | 100 | 1018.2 |
| 20260506041147 | 67 | 192 | 0.9 | 3.5 | 0.00 | 0.00 | 0.00 | 100 | 1018.2 |
| 20260506041046 | 67 | 221 | 0.9 | 3.5 | 0.00 | 0.00 | 0.00 | 100 | 1018.2 |
| 20260506040946 | 67 | 221 | 0.9 | 3.5 | 0.00 | 0.00 | 0.00 | 100 | 1018.2 |
| 20260506040846 | 67 | 221 | 0.9 | 3.5 | 0.00 | 0.00 | 0.00 | 100 | 1018.2 |
| 20260506040746 | 67 | 221 | 0.9 | 3.5 | 0.00 | 0.00 | 0.00 | 100 | 1018.2 |
| 20260506040642 | 67 | 221 | 0.9 | 3.5 | 0.00 | 0.00 | 0.00 | 100 | 1018.2 |
| 20260506040543 | 67 | 224 | 0.9 | 3.5 | 0.00 | 0.00 | 0.00 | 100 | 1018.2 |
| 20260506040442 | 67 | 224 | 0.9 | 3.5 | 0.00 | 0.00 | 0.00 | 100 | 1018.3 |
| 20260506040343 | 67 | 224 | 0.9 | 2.6 | 0.00 | 0.00 | 0.00 | 100 | 1018.3 |
| 20260506040243 | 67 | 224 | 0.9 | 2.6 | 0.00 | 0.00 | 0.00 | 100 | 1018.3 |
| 20260506040141 | 67 | 224 | 0.9 | 2.6 | 0.00 | 0.00 | 0.00 | 100 | 1018.4 |
| 20260506040101 | 67 | 224 | 0.9 | 2.6 | 0.00 | 0.00 | 0.00 | 100 | 1018.4 |
| 20260506035940 | 67 | 224 | 0.9 | 2.6 | 0.00 | 0.00 | 0.00 | 100 | 1018.3 |
| 20260506035839 | 67 | 224 | 0.9 | 2.6 | 0.00 | 0.00 | 0.00 | 100 | 1018.4 |
| 20260506035737 | 67 | 224 | 0.9 | 3.5 | 0.00 | 0.00 | 0.00 | 100 | 1018.4 |
| 20260506035634 | 67 | 224 | 0.9 | 3.5 | 0.00 | 0.00 | 0.00 | 100 | 1018.3 |
| 20260506035533 | 67 | 224 | 0.9 | 3.5 | 0.00 | 0.00 | 0.00 | 100 | 1018.4 |
| 20260506035431 | 67 | 224 | 0.9 | 3.5 | 0.00 | 0.00 | 0.00 | 100 | 1018.4 |
| 20260506035330 | 67 | 224 | 0.9 | 3.5 | 0.00 | 0.00 | 0.00 | 100 | 1018.3 |
| 20260506035231 | 67 | 224 | 0.9 | 3.5 | 0.00 | 0.00 | 0.00 | 100 | 1018.4 |
| 20260506035133 | 67 | 224 | 0.9 | 3.5 | 0.00 | 0.00 | 0.00 | 100 | 1018.3 |
| 20260506035030 | 67 | 224 | 0.9 | 3.5 | 0.00 | 0.00 | 0.00 | 100 | 1018.4 |
| 20260506034930 | 67 | 224 | 0.9 | 3.5 | 0.00 | 0.00 | 0.00 | 100 | 1018.4 |
| 20260506034831 | 67 | 224 | 0.9 | 3.5 | 0.00 | 0.00 | 0.00 | 100 | 1018.3 |
| 20260506034731 | 67 | 224 | 0.9 | 2.6 | 0.00 | 0.00 | 0.00 | 100 | 1018.3 |
| 20260506034629 | 66 | 224 | 0.9 | 2.6 | 0.00 | 0.00 | 0.00 | 100 | 1018.4 |
| 20260506034531 | 66 | 224 | 0.9 | 2.6 | 0.00 | 0.00 | 0.00 | 100 | 1018.4 |
| 20260506034430 | 66 | 224 | 0.9 | 2.6 | 0.00 | 0.00 | 0.00 | 100 | 1018.3 |
| 20260506034327 | 66 | 224 | 0.9 | 2.6 | 0.00 | 0.00 | 0.00 | 100 | 1018.3 |
| 20260506034225 | 66 | 224 | 0.9 | 2.6 | 0.00 | 0.00 | 0.00 | 100 | 1018.4 |
| 20260506034122 | 66 | 224 | 0.9 | 2.6 | 0.00 | 0.00 | 0.00 | 100 | 1018.4 |
| 20260506034056 | 66 | 224 | 0.9 | 2.6 | 0.00 | 0.00 | 0.00 | 100 | 1018.4 |
| 20260506033922 | 66 | 224 | 0.9 | 2.6 | 0.00 | 0.00 | 0.00 | 100 | 1018.4 |
| 20260506033823 | 66 | 224 | 0.9 | 2.6 | 0.00 | 0.00 | 0.00 | 100 | 1018.4 |
| 20260506033721 | 66 | 224 | 0.9 | 2.6 | 0.00 | 0.00 | 0.00 | 100 | 1018.4 |
| 20260506033622 | 66 | 224 | 0.9 | 2.6 | 0.00 | 0.00 | 0.00 | 100 | 1018.4 |
| 20260506033521 | 66 | 224 | 0.9 | 2.6 | 0.00 | 0.00 | 0.00 | 100 | 1018.4 |
| 20260506033421 | 66 | 224 | 1.7 | 2.6 | 0.00 | 0.00 | 0.00 | 100 | 1018.4 |
| 20260506033321 | 66 | 224 | 1.7 | 2.6 | 0.00 | 0.00 | 0.00 | 100 | 1018.4 |
| 20260506033223 | 66 | 224 | 1.7 | 2.6 | 0.00 | 0.00 | 0.00 | 100 | 1018.4 |
| 20260506033123 | 66 | 224 | 1.7 | 2.6 | 0.00 | 0.00 | 0.00 | 100 | 1018.6 |
| 20260506033023 | 66 | 224 | 1.7 | 2.6 | 0.00 | 0.00 | 0.00 | 100 | 1018.6 |
| 20260506032923 | 66 | 224 | 1.7 | 2.6 | 0.00 | 0.00 | 0.00 | 100 | 1018.4 |
| 20260506032819 | 66 | 224 | 1.7 | 2.6 | 0.00 | 0.00 | 0.00 | 100 | 1018.6 |
| 20260506032715 | 66 | 224 | 1.7 | 2.6 | 0.00 | 0.00 | 0.00 | 100 | 1018.4 |
| 20260506032617 | 66 | 224 | 1.7 | 2.6 | 0.00 | 0.00 | 0.00 | 100 | 1018.4 |
| 20260506032514 | 66 | 224 | 1.7 | 2.6 | 0.00 | 0.00 | 0.00 | 100 | 1018.4 |
| 20260506032413 | 66 | 224 | 1.7 | 2.6 | 0.00 | 0.00 | 0.00 | 100 | 1018.6 |
| 20260506032313 | 66 | 224 | 1.7 | 2.6 | 0.00 | 0.00 | 0.00 | 100 | 1018.4 |
| 20260506032212 | 66 | 224 | 1.7 | 2.6 | 0.00 | 0.00 | 0.00 | 100 | 1018.6 |
| 20260506032110 | 66 | 224 | 1.7 | 2.6 | 0.00 | 0.00 | 0.00 | 100 | 1018.6 |
| 20260506032011 | 66 | 224 | 1.7 | 2.6 | 0.00 | 0.00 | 0.00 | 100 | 1018.6 |
| 20260506031907 | 66 | 224 | 0.9 | 2.6 | 0.00 | 0.00 | 0.00 | 100 | 1018.6 |
| 20260506031807 | 66 | 224 | 0.9 | 2.6 | 0.00 | 0.00 | 0.00 | 100 | 1018.6 |
| 20260506031706 | 66 | 224 | 0.9 | 2.6 | 0.00 | 0.00 | 0.00 | 100 | 1018.6 |
| 20260506031605 | 66 | 224 | 0.9 | 2.6 | 0.00 | 0.00 | 0.00 | 100 | 1018.6 |
| 20260506031507 | 66 | 224 | 0.9 | 2.6 | 0.00 | 0.00 | 0.00 | 100 | 1018.7 |
| 20260506031406 | 66 | 224 | 0.9 | 2.6 | 0.00 | 0.00 | 0.00 | 100 | 1018.6 |
| 20260506031304 | 66 | 224 | 0.9 | 2.6 | 0.00 | 0.00 | 0.00 | 100 | 1018.6 |
| 20260506031205 | 66 | 224 | 0.9 | 2.6 | 0.00 | 0.00 | 0.00 | 100 | 1018.6 |
| 20260506031104 | 66 | 224 | 0.9 | 2.6 | 0.00 | 0.00 | 0.00 | 100 | 1018.6 |
| 20260506031001 | 66 | 224 | 0.9 | 2.6 | 0.00 | 0.00 | 0.00 | 100 | 1018.6 |
| 20260506030901 | 66 | 224 | 0.9 | 2.6 | 0.00 | 0.00 | 0.00 | 100 | 1018.6 |
| 20260506030801 | 66 | 224 | 0.9 | 2.6 | 0.00 | 0.00 | 0.00 | 100 | 1018.6 |
| 20260506030701 | 66 | 224 | 0.9 | 2.6 | 0.00 | 0.00 | 0.00 | 100 | 1018.4 |
| 20260506030600 | 66 | 224 | 0.9 | 2.6 | 0.00 | 0.00 | 0.00 | 100 | 1018.4 |
| 20260506030546 | 66 | 224 | 0.9 | 2.6 | 0.00 | 0.00 | 0.00 | 100 | 1018.6 |
| 20260506030355 | 66 | 224 | 0.9 | 2.6 | 0.00 | 0.00 | 0.00 | 100 | 1018.6 |
| 20260506030255 | 66 | 224 | 1.7 | 2.6 | 0.00 | 0.00 | 0.00 | 100 | 1018.6 |
| 20260506030155 | 66 | 224 | 1.7 | 2.6 | 0.00 | 0.00 | 0.00 | 100 | 1018.6 |
| 20260506030053 | 66 | 224 | 1.7 | 2.6 | 0.00 | 0.00 | 0.00 | 100 | 1018.7 |
| 20260506025953 | 66 | 224 | 1.7 | 2.6 | 0.00 | 0.00 | 0.00 | 100 | 1018.7 |
| 20260506025851 | 66 | 224 | 1.7 | 3.5 | 0.00 | 0.00 | 0.00 | 100 | 1018.7 |
| 20260506025752 | 66 | 224 | 1.7 | 3.5 | 0.00 | 0.00 | 0.00 | 100 | 1018.7 |
| 20260506025650 | 66 | 224 | 1.7 | 3.5 | 0.00 | 0.00 | 0.00 | 100 | 1018.7 |
| 20260506025548 | 66 | 224 | 1.7 | 3.5 | 0.00 | 0.00 | 0.00 | 100 | 1018.7 |
| 20260506025347 | 66 | 224 | 1.7 | 3.5 | 0.00 | 0.00 | 0.00 | 100 | 1018.6 |
| 20260506025248 | 66 | 224 | 1.7 | 3.5 | 0.00 | 0.00 | 0.00 | 100 | 1018.6 |
| 20260506025145 | 66 | 224 | 1.7 | 3.5 | 0.00 | 0.00 | 0.00 | 100 | 1018.6 |
| 20260506025046 | 66 | 224 | 1.7 | 3.5 | 0.00 | 0.00 | 0.00 | 100 | 1018.6 |
| 20260506024845 | 66 | 224 | 1.7 | 3.5 | 0.00 | 0.00 | 0.00 | 100 | 1018.7 |
| 20260506024744 | 66 | 224 | 1.7 | 3.5 | 0.00 | 0.00 | 0.00 | 100 | 1018.6 |
| 20260506024643 | 66 | 224 | 1.7 | 3.5 | 0.00 | 0.00 | 0.00 | 100 | 1018.6 |
| 20260506024541 | 66 | 224 | 1.7 | 3.5 | 0.00 | 0.00 | 0.00 | 100 | 1018.6 |
| 20260506024338 | 66 | 224 | 1.7 | 3.5 | 0.00 | 0.00 | 0.00 | 100 | 1018.6 |
| 20260506024237 | 66 | 224 | 1.7 | 3.5 | 0.00 | 0.00 | 0.00 | 100 | 1018.6 |
| 20260506024135 | 66 | 224 | 1.7 | 3.5 | 0.00 | 0.00 | 0.00 | 100 | 1018.7 |
| 20260506024034 | 66 | 224 | 1.7 | 3.5 | 0.00 | 0.00 | 0.00 | 100 | 1018.6 |
| 20260506023833 | 66 | 224 | 1.7 | 2.6 | 0.00 | 0.00 | 0.00 | 100 | 1018.4 |
| 20260506023733 | 66 | 224 | 1.7 | 2.6 | 0.00 | 0.00 | 0.00 | 100 | 1018.6 |
| 20260506023631 | 66 | 224 | 1.7 | 2.6 | 0.00 | 0.00 | 0.00 | 100 | 1018.6 |
| 20260506023549 | 66 | 224 | 1.7 | 2.6 | 0.00 | 0.00 | 0.00 | 100 | 1018.4 |
| 20260506023430 | 66 | 224 | 1.7 | 2.6 | 0.00 | 0.00 | 0.00 | 100 | 1018.6 |
| 20260506023330 | 66 | 224 | 0.9 | 2.6 | 0.00 | 0.00 | 0.00 | 100 | 1018.4 |
| 20260506023229 | 66 | 224 | 0.9 | 2.6 | 0.00 | 0.00 | 0.00 | 100 | 1018.4 |
| 20260506023129 | 66 | 224 | 0.9 | 2.6 | 0.00 | 0.00 | 0.00 | 100 | 1018.4 |
| 20260506023026 | 66 | 223 | 0.9 | 2.6 | 0.00 | 0.00 | 0.00 | 100 | 1018.4 |
| 20260506022926 | 66 | 223 | 0.9 | 2.6 | 0.00 | 0.00 | 0.00 | 100 | 1018.4 |
| 20260506022826 | 66 | 223 | 0.9 | 2.6 | 0.00 | 0.00 | 0.00 | 100 | 1018.4 |
| 20260506022725 | 66 | 223 | 0.0 | 2.6 | 0.00 | 0.00 | 0.00 | 100 | 1018.6 |
| 20260506022623 | 66 | 223 | 0.9 | 2.6 | 0.00 | 0.00 | 0.00 | 100 | 1018.6 |
| 20260506022548 | 66 | 223 | 0.9 | 2.6 | 0.00 | 0.00 | 0.00 | 100 | 1018.4 |
| 20260506022422 | 66 | 223 | 0.9 | 2.6 | 0.00 | 0.00 | 0.00 | 100 | 1018.6 |
| 20260506022321 | 66 | 223 | 0.9 | 2.6 | 0.00 | 0.00 | 0.00 | 100 | 1018.4 |
| 20260506022221 | 66 | 223 | 0.9 | 2.6 | 0.00 | 0.00 | 0.00 | 100 | 1018.4 |
| 20260506022120 | 66 | 223 | 0.9 | 2.6 | 0.00 | 0.00 | 0.00 | 100 | 1018.4 |
| 20260506022021 | 66 | 223 | 0.9 | 2.6 | 0.00 | 0.00 | 0.00 | 100 | 1018.6 |
| 20260506021919 | 66 | 223 | 1.7 | 2.6 | 0.00 | 0.00 | 0.00 | 100 | 1018.6 |
| 20260506021817 | 66 | 223 | 1.7 | 2.6 | 0.00 | 0.00 | 0.00 | 100 | 1018.6 |
| 20260506021717 | 66 | 223 | 1.7 | 3.5 | 0.00 | 0.00 | 0.00 | 100 | 1018.7 |
| 20260506021616 | 66 | 223 | 1.7 | 3.5 | 0.00 | 0.00 | 0.00 | 100 | 1018.7 |
| 20260506021514 | 66 | 223 | 1.7 | 3.5 | 0.00 | 0.00 | 0.00 | 100 | 1018.6 |
| 20260506021414 | 66 | 223 | 1.7 | 3.5 | 0.00 | 0.00 | 0.00 | 100 | 1018.7 |
| 20260506021314 | 66 | 223 | 1.7 | 3.5 | 0.00 | 0.00 | 0.00 | 100 | 1018.7 |
| 20260506021213 | 66 | 223 | 1.7 | 3.5 | 0.00 | 0.00 | 0.00 | 100 | 1018.7 |
| 20260506021111 | 66 | 223 | 1.7 | 3.5 | 0.00 | 0.00 | 0.00 | 100 | 1018.6 |
| 20260506021013 | 66 | 223 | 1.7 | 3.5 | 0.00 | 0.00 | 0.00 | 100 | 1018.6 |
| 20260506020913 | 66 | 223 | 1.7 | 3.5 | 0.00 | 0.00 | 0.00 | 100 | 1018.7 |
| 20260506020811 | 66 | 223 | 1.7 | 3.5 | 0.00 | 0.00 | 0.00 | 100 | 1018.6 |
| 20260506020710 | 66 | 223 | 1.7 | 3.5 | 0.00 | 0.00 | 0.00 | 100 | 1018.7 |
| 20260506020607 | 66 | 223 | 1.7 | 3.5 | 0.00 | 0.00 | 0.00 | 100 | 1018.6 |
| 20260506020509 | 66 | 223 | 1.7 | 3.5 | 0.00 | 0.00 | 0.00 | 100 | 1018.6 |
| 20260506020406 | 66 | 223 | 1.7 | 3.5 | 0.00 | 0.00 | 0.00 | 100 | 1018.6 |
| 20260506020305 | 66 | 223 | 1.7 | 3.5 | 0.00 | 0.00 | 0.00 | 100 | 1018.4 |
| 20260506020205 | 66 | 223 | 1.7 | 3.5 | 0.00 | 0.00 | 0.00 | 100 | 1018.6 |
| 20260506020104 | 66 | 223 | 1.7 | 3.5 | 0.00 | 0.00 | 0.00 | 100 | 1018.6 |
| 20260506020002 | 66 | 223 | 1.7 | 3.5 | 0.00 | 0.00 | 0.00 | 100 | 1018.6 |
| 20260506015903 | 66 | 223 | 1.7 | 3.5 | 0.00 | 0.00 | 0.00 | 100 | 1018.7 |
| 20260506015801 | 66 | 224 | 0.9 | 3.5 | 0.00 | 0.00 | 0.00 | 100 | 1018.6 |
| 20260506015701 | 66 | 223 | 0.9 | 3.5 | 0.00 | 0.00 | 0.00 | 100 | 1018.6 |
| 20260506015559 | 66 | 223 | 0.9 | 2.6 | 0.00 | 0.00 | 0.00 | 100 | 1018.6 |
| 20260506015541 | 66 | 223 | 0.9 | 2.6 | 0.00 | 0.00 | 0.00 | 100 | 1018.4 |
| 20260506015357 | 66 | 223 | 0.9 | 1.7 | 0.00 | 0.00 | 0.00 | 100 | 1018.6 |
| 20260506015257 | 66 | 223 | 0.9 | 1.7 | 0.00 | 0.00 | 0.00 | 100 | 1018.6 |
| 20260506015157 | 66 | 223 | 0.9 | 2.6 | 0.00 | 0.00 | 0.00 | 100 | 1018.6 |
| 20260506015055 | 66 | 223 | 0.9 | 2.6 | 0.00 | 0.00 | 0.00 | 100 | 1018.6 |
| 20260506014957 | 66 | 223 | 0.9 | 2.6 | 0.00 | 0.00 | 0.00 | 100 | 1018.6 |
| 20260506014855 | 66 | 223 | 0.9 | 2.6 | 0.00 | 0.00 | 0.00 | 100 | 1018.6 |
| 20260506014753 | 66 | 223 | 0.9 | 2.6 | 0.00 | 0.00 | 0.00 | 100 | 1018.6 |
| 20260506014654 | 66 | 223 | 0.9 | 2.6 | 0.00 | 0.00 | 0.00 | 100 | 1018.4 |
| 20260506014551 | 66 | 223 | 0.9 | 2.6 | 0.00 | 0.00 | 0.00 | 100 | 1018.6 |
| 20260506014351 | 66 | 223 | 0.9 | 2.6 | 0.00 | 0.00 | 0.00 | 100 | 1018.4 |
| 20260506014251 | 66 | 223 | 0.9 | 2.6 | 0.00 | 0.00 | 0.00 | 100 | 1018.6 |
| 20260506014150 | 66 | 223 | 0.9 | 2.6 | 0.00 | 0.00 | 0.00 | 100 | 1018.6 |
| 20260506014055 | 66 | 223 | 0.9 | 2.6 | 0.00 | 0.00 | 0.00 | 100 | 1018.6 |
| 20260506014038 | 66 | 223 | 0.9 | 2.6 | 0.00 | 0.00 | 0.00 | 100 | 1018.6 |
| 20260506013846 | 66 | 223 | 0.9 | 2.6 | 0.00 | 0.00 | 0.00 | 100 | 1018.6 |
| 20260506013746 | 66 | 223 | 0.9 | 2.6 | 0.00 | 0.00 | 0.00 | 100 | 1018.6 |
| 20260506013646 | 66 | 223 | 0.9 | 2.6 | 0.00 | 0.00 | 0.00 | 100 | 1018.7 |
| 20260506013545 | 66 | 223 | 0.9 | 2.6 | 0.00 | 0.00 | 0.00 | 100 | 1018.6 |
| 20260506013343 | 66 | 223 | 0.9 | 2.6 | 0.00 | 0.00 | 0.00 | 100 | 1018.6 |
| 20260506013243 | 66 | 223 | 0.9 | 2.6 | 0.00 | 0.00 | 0.00 | 100 | 1018.6 |
| 20260506013143 | 66 | 223 | 0.9 | 2.6 | 0.00 | 0.00 | 0.00 | 100 | 1018.6 |
| 20260506013040 | 66 | 223 | 0.9 | 2.6 | 0.00 | 0.00 | 0.00 | 100 | 1018.6 |
| 20260506012838 | 66 | 223 | 0.9 | 2.6 | 0.00 | 0.00 | 0.00 | 100 | 1018.6 |
| 20260506012737 | 66 | 223 | 0.9 | 2.6 | 0.00 | 0.00 | 0.00 | 100 | 1018.6 |
| 20260506012637 | 66 | 223 | 0.9 | 2.6 | 0.00 | 0.00 | 0.00 | 100 | 1018.4 |
| 20260506012537 | 66 | 223 | 0.9 | 2.6 | 0.00 | 0.00 | 0.00 | 100 | 1018.4 |
| 20260506012333 | 66 | 224 | 0.9 | 2.6 | 0.00 | 0.00 | 0.00 | 100 | 1018.6 |
| 20260506012235 | 66 | 224 | 0.9 | 2.6 | 0.00 | 0.00 | 0.00 | 100 | 1018.4 |
| 20260506012135 | 66 | 224 | 0.9 | 2.6 | 0.00 | 0.00 | 0.00 | 100 | 1018.6 |
| 20260506012052 | 66 | 224 | 0.9 | 2.6 | 0.00 | 0.00 | 0.00 | 100 | 1018.6 |
| 20260506012037 | 66 | 224 | 0.9 | 2.6 | 0.00 | 0.00 | 0.00 | 100 | 1018.6 |
| 20260506011831 | 66 | 224 | 0.9 | 2.6 | 0.00 | 0.00 | 0.00 | 100 | 1018.6 |
| 20260506011730 | 66 | 224 | 0.9 | 2.6 | 0.00 | 0.00 | 0.00 | 100 | 1018.6 |
| 20260506011629 | 66 | 224 | 0.9 | 2.6 | 0.00 | 0.00 | 0.00 | 100 | 1018.6 |
| 20260506011529 | 66 | 224 | 0.9 | 2.6 | 0.00 | 0.00 | 0.00 | 100 | 1018.6 |
| 20260506011429 | 67 | 224 | 0.9 | 1.7 | 0.00 | 0.00 | 0.00 | 100 | 1018.6 |
| 20260506011325 | 67 | 224 | 0.9 | 1.7 | 0.00 | 0.00 | 0.00 | 100 | 1018.4 |
| 20260506011225 | 67 | 224 | 0.0 | 1.7 | 0.00 | 0.00 | 0.00 | 100 | 1018.6 |
| 20260506011126 | 67 | 224 | 0.0 | 1.7 | 0.00 | 0.00 | 0.00 | 100 | 1018.4 |
| 20260506011024 | 67 | 224 | 0.0 | 1.7 | 0.00 | 0.00 | 0.00 | 100 | 1018.4 |
| 20260506010923 | 67 | 224 | 0.0 | 1.7 | 0.00 | 0.00 | 0.00 | 100 | 1018.4 |
| 20260506010822 | 67 | 224 | 0.0 | 1.7 | 0.00 | 0.00 | 0.00 | 100 | 1018.4 |
| 20260506010721 | 67 | 224 | 0.0 | 1.7 | 0.00 | 0.00 | 0.00 | 100 | 1018.3 |
| 20260506010621 | 67 | 224 | 0.0 | 1.7 | 0.00 | 0.00 | 0.00 | 100 | 1018.4 |
| 20260506010519 | 67 | 224 | 0.9 | 1.7 | 0.00 | 0.00 | 0.00 | 100 | 1018.3 |
| 20260506010421 | 67 | 224 | 0.0 | 1.7 | 0.00 | 0.00 | 0.00 | 100 | 1018.2 |
| 20260506010319 | 67 | 224 | 0.0 | 1.7 | 0.00 | 0.00 | 0.00 | 100 | 1018.2 |
| 20260506010218 | 67 | 224 | 0.9 | 1.7 | 0.00 | 0.00 | 0.00 | 100 | 1018.3 |
| 20260506010118 | 67 | 224 | 0.9 | 1.7 | 0.00 | 0.00 | 0.00 | 100 | 1018.2 |
| 20260506010043 | 67 | 224 | 0.9 | 1.7 | 0.00 | 0.00 | 0.00 | 100 | 1018.3 |
| 20260506005916 | 67 | 223 | 0.9 | 1.7 | 0.00 | 0.00 | 0.00 | 100 | 1018.3 |
| 20260506005814 | 67 | 223 | 0.9 | 2.6 | 0.00 | 0.00 | 0.00 | 100 | 1018.3 |
| 20260506005713 | 67 | 224 | 0.9 | 2.6 | 0.00 | 0.00 | 0.00 | 100 | 1018.3 |
| 20260506005613 | 67 | 224 | 0.9 | 2.6 | 0.00 | 0.00 | 0.00 | 100 | 1018.2 |
| 20260506005512 | 67 | 224 | 0.9 | 2.6 | 0.00 | 0.00 | 0.00 | 100 | 1018.2 |
| 20260506005412 | 67 | 223 | 0.9 | 2.6 | 0.00 | 0.00 | 0.00 | 100 | 1018.1 |
| 20260506005312 | 67 | 224 | 0.9 | 2.6 | 0.00 | 0.00 | 0.00 | 100 | 1018.1 |
| 20260506005212 | 67 | 224 | 0.9 | 2.6 | 0.00 | 0.00 | 0.00 | 100 | 1018.2 |
| 20260506005113 | 67 | 223 | 1.7 | 2.6 | 0.00 | 0.00 | 0.00 | 100 | 1018.2 |
| 20260506005013 | 67 | 224 | 1.7 | 2.6 | 0.00 | 0.00 | 0.00 | 100 | 1018.1 |
| 20260506004911 | 67 | 224 | 1.7 | 2.6 | 0.00 | 0.00 | 0.00 | 100 | 1018.2 |
| 20260506004809 | 67 | 224 | 0.9 | 2.6 | 0.00 | 0.00 | 0.00 | 100 | 1018.2 |
| 20260506004707 | 67 | 224 | 1.7 | 2.6 | 0.00 | 0.00 | 0.00 | 100 | 1018.2 |
| 20260506004607 | 67 | 223 | 1.7 | 3.5 | 0.00 | 0.00 | 0.00 | 100 | 1018.1 |
| 20260506004507 | 67 | 224 | 1.7 | 3.5 | 0.00 | 0.00 | 0.00 | 100 | 1018.1 |
| 20260506004406 | 67 | 224 | 1.7 | 4.3 | 0.00 | 0.00 | 0.00 | 100 | 1018.1 |
| 20260506004305 | 67 | 224 | 1.7 | 4.3 | 0.00 | 0.00 | 0.00 | 100 | 1018.1 |
| 20260506004204 | 67 | 224 | 1.7 | 4.3 | 0.00 | 0.00 | 0.00 | 100 | 1018.1 |
| 20260506004103 | 67 | 224 | 1.7 | 4.3 | 0.00 | 0.00 | 0.00 | 100 | 1018.1 |
| 20260506004005 | 67 | 224 | 1.7 | 4.3 | 0.00 | 0.00 | 0.00 | 100 | 1018.1 |
| 20260506003903 | 67 | 224 | 1.7 | 4.3 | 0.00 | 0.00 | 0.00 | 100 | 1018.1 |
| 20260506003803 | 67 | 224 | 1.7 | 4.3 | 0.00 | 0.00 | 0.00 | 100 | 1018.1 |
| 20260506003703 | 67 | 224 | 1.7 | 4.3 | 0.00 | 0.00 | 0.00 | 100 | 1018.1 |
| 20260506003603 | 67 | 224 | 1.7 | 4.3 | 0.00 | 0.00 | 0.00 | 100 | 1018.1 |
| 20260506003503 | 67 | 224 | 1.7 | 4.3 | 0.00 | 0.00 | 0.00 | 100 | 1018.0 |
| 20260506003404 | 67 | 224 | 1.7 | 4.3 | 0.00 | 0.00 | 0.00 | 100 | 1018.1 |
| 20260506003305 | 67 | 224 | 1.7 | 4.3 | 0.00 | 0.00 | 0.00 | 100 | 1018.1 |
| 20260506003203 | 67 | 224 | 2.6 | 4.3 | 0.00 | 0.00 | 0.00 | 100 | 1018.1 |
| 20260506003103 | 67 | 224 | 2.6 | 4.3 | 0.00 | 0.00 | 0.00 | 100 | 1018.0 |
| 20260506003004 | 67 | 224 | 2.6 | 5.2 | 0.00 | 0.00 | 0.00 | 100 | 1018.1 |
| 20260506002904 | 67 | 224 | 2.6 | 5.2 | 0.00 | 0.00 | 0.00 | 100 | 1018.1 |
| 20260506002803 | 67 | 224 | 2.6 | 5.2 | 0.00 | 0.00 | 0.00 | 100 | 1018.1 |
| 20260506002705 | 68 | 224 | 2.6 | 5.2 | 0.00 | 0.00 | 0.00 | 100 | 1018.1 |
| 20260506002603 | 68 | 224 | 2.6 | 5.2 | 0.00 | 0.00 | 0.00 | 100 | 1018.0 |
| 20260506002504 | 67 | 224 | 2.6 | 5.2 | 0.00 | 0.00 | 0.00 | 100 | 1018.1 |
| 20260506002401 | 68 | 224 | 1.7 | 5.2 | 0.00 | 0.00 | 0.00 | 100 | 1018.0 |
| 20260506002301 | 68 | 224 | 1.7 | 5.2 | 0.00 | 0.00 | 0.00 | 100 | 1018.0 |
| 20260506002202 | 68 | 223 | 1.7 | 5.2 | 0.00 | 0.00 | 0.00 | 100 | 1018.0 |
| 20260506002101 | 68 | 223 | 1.7 | 5.2 | 0.00 | 0.00 | 0.00 | 100 | 1018.0 |
| 20260506002001 | 68 | 223 | 1.7 | 3.5 | 0.00 | 0.00 | 0.00 | 100 | 1018.1 |
| 20260506001902 | 68 | 223 | 1.7 | 3.5 | 0.00 | 0.00 | 0.00 | 100 | 1018.0 |
| 20260506001801 | 68 | 223 | 1.7 | 3.5 | 0.00 | 0.00 | 0.00 | 100 | 1018.1 |
| 20260506001701 | 68 | 223 | 1.7 | 4.3 | 0.00 | 0.00 | 0.00 | 100 | 1018.0 |
| 20260506001602 | 68 | 222 | 1.7 | 4.3 | 0.00 | 0.00 | 0.00 | 100 | 1018.1 |
| 20260506001501 | 68 | 222 | 1.7 | 4.3 | 0.00 | 0.00 | 0.00 | 100 | 1018.0 |
| 20260506001401 | 68 | 222 | 1.7 | 4.3 | 0.00 | 0.00 | 0.00 | 100 | 1018.0 |
| 20260506001301 | 68 | 222 | 1.7 | 4.3 | 0.00 | 0.00 | 0.00 | 100 | 1018.2 |
| 20260506001202 | 68 | 222 | 1.7 | 4.3 | 0.00 | 0.00 | 0.00 | 100 | 1018.1 |
| 20260506001101 | 68 | 222 | 1.7 | 4.3 | 0.00 | 0.00 | 0.00 | 100 | 1018.0 |
| 20260506001001 | 68 | 222 | 1.7 | 4.3 | 0.00 | 0.00 | 0.00 | 100 | 1018.0 |
| 20260506000902 | 68 | 225 | 1.7 | 4.3 | 0.00 | 0.00 | 0.00 | 100 | 1018.1 |
| 20260506000800 | 68 | 225 | 1.7 | 4.3 | 0.00 | 0.00 | 0.00 | 100 | 1018.1 |
| 20260506000659 | 68 | 224 | 1.7 | 3.5 | 0.00 | 0.00 | 0.00 | 100 | 1018.1 |
| 20260506000600 | 68 | 224 | 1.7 | 3.5 | 0.00 | 0.00 | 0.00 | 100 | 1018.0 |
| 20260506000501 | 68 | 224 | 1.7 | 3.5 | 0.00 | 0.00 | 0.00 | 100 | 1018.0 |
| 20260506000401 | 68 | 224 | 1.7 | 4.3 | 0.00 | 0.00 | 0.00 | 100 | 1018.1 |
| 20260506000302 | 68 | 224 | 1.7 | 4.3 | 0.00 | 0.00 | 0.00 | 100 | 1018.1 |
| 20260506000201 | 68 | 224 | 1.7 | 4.3 | 0.00 | 0.00 | 0.00 | 100 | 1018.1 |
| 20260506000059 | 68 | 224 | 1.7 | 4.3 | 0.00 | 0.00 | 0.00 | 100 | 1018.1 |
| 20260506000039 | 68 | 224 | 1.7 | 4.3 | 0.00 | 0.00 | 0.00 | 100 | 1018.1 |
| 20260505235900 | 68 | 224 | 1.7 | 4.3 | 0.00 | 0.00 | 0.00 | 100 | 1018.1 |
| 20260505235759 | 68 | 224 | 1.7 | 4.3 | 0.00 | 0.00 | 0.00 | 100 | 1018.1 |
| 20260505235659 | 68 | 225 | 1.7 | 5.2 | 0.00 | 0.00 | 0.00 | 100 | 1018.1 |
| 20260505235559 | 68 | 225 | 1.7 | 5.2 | 0.00 | 0.00 | 0.00 | 100 | 1018.0 |
| 20260505235500 | 68 | 225 | 1.7 | 5.2 | 0.00 | 0.00 | 0.00 | 100 | 1018.0 |
| 20260505235400 | 68 | 225 | 1.7 | 5.2 | 0.00 | 0.00 | 0.00 | 100 | 1018.1 |
| 20260505235259 | 69 | 225 | 2.6 | 5.2 | 0.00 | 0.00 | 0.00 | 100 | 1018.1 |
| 20260505235158 | 69 | 225 | 2.6 | 5.2 | 0.00 | 0.00 | 0.00 | 100 | 1018.1 |
| 20260505235100 | 69 | 225 | 1.7 | 5.2 | 0.00 | 0.00 | 0.00 | 100 | 1018.0 |
| 20260505235000 | 69 | 225 | 1.7 | 5.2 | 0.00 | 0.00 | 0.00 | 100 | 1018.1 |
| 20260505234857 | 69 | 225 | 1.7 | 5.2 | 0.00 | 0.00 | 0.00 | 100 | 1018.0 |
| 20260505234756 | 69 | 225 | 1.7 | 5.2 | 0.00 | 0.00 | 0.00 | 100 | 1018.1 |
| 20260505234656 | 69 | 225 | 1.7 | 5.2 | 0.00 | 0.00 | 0.00 | 100 | 1018.0 |
| 20260505234556 | 69 | 225 | 1.7 | 5.2 | 0.00 | 0.00 | 0.00 | 100 | 1018.1 |
| 20260505234456 | 69 | 225 | 2.6 | 5.2 | 0.00 | 0.00 | 0.00 | 100 | 1018.0 |
| 20260505234355 | 69 | 225 | 1.7 | 5.2 | 0.00 | 0.00 | 0.00 | 100 | 1018.0 |
| 20260505234253 | 69 | 225 | 1.7 | 5.2 | 0.00 | 0.00 | 0.00 | 100 | 1017.9 |
| 20260505234152 | 69 | 225 | 2.6 | 5.2 | 0.00 | 0.00 | 0.00 | 100 | 1018.0 |
| 20260505234052 | 69 | 225 | 2.6 | 5.2 | 0.00 | 0.00 | 0.00 | 100 | 1018.0 |
| 20260505233950 | 69 | 225 | 2.6 | 5.2 | 0.00 | 0.00 | 0.00 | 100 | 1018.0 |
| 20260505233852 | 69 | 225 | 2.6 | 5.2 | 0.00 | 0.00 | 0.00 | 100 | 1017.9 |
| 20260505233752 | 69 | 223 | 2.6 | 5.2 | 0.00 | 0.00 | 0.00 | 100 | 1018.0 |
| 20260505233649 | 69 | 223 | 2.6 | 5.2 | 0.00 | 0.00 | 0.00 | 100 | 1018.0 |
| 20260505233549 | 69 | 223 | 2.6 | 5.2 | 0.00 | 0.00 | 0.00 | 100 | 1018.0 |
| 20260505233448 | 69 | 223 | 2.6 | 5.2 | 0.00 | 0.00 | 0.00 | 100 | 1018.1 |
| 20260505233347 | 69 | 223 | 2.6 | 5.2 | 0.00 | 0.00 | 0.00 | 100 | 1018.1 |
| 20260505233247 | 69 | 223 | 1.7 | 5.2 | 0.00 | 0.00 | 0.00 | 100 | 1018.1 |
| 20260505233146 | 69 | 225 | 1.7 | 4.3 | 0.00 | 0.00 | 0.00 | 100 | 1018.1 |
| 20260505233046 | 69 | 225 | 1.7 | 4.3 | 0.00 | 0.00 | 0.00 | 100 | 1018.1 |
| 20260505232945 | 69 | 225 | 1.7 | 4.3 | 0.00 | 0.00 | 0.00 | 100 | 1018.1 |
| 20260505232845 | 69 | 225 | 2.6 | 4.3 | 0.00 | 0.00 | 0.00 | 100 | 1018.0 |
| 20260505232744 | 69 | 226 | 2.6 | 6.1 | 0.00 | 0.00 | 0.00 | 100 | 1018.1 |
| 20260505232643 | 69 | 225 | 2.6 | 6.1 | 0.00 | 0.00 | 0.00 | 100 | 1018.1 |
| 20260505232544 | 69 | 225 | 2.6 | 6.1 | 0.00 | 0.00 | 0.00 | 100 | 1018.1 |
| 20260505232443 | 69 | 225 | 2.6 | 6.1 | 0.00 | 0.00 | 0.00 | 100 | 1018.1 |
| 20260505232344 | 69 | 225 | 2.6 | 7.0 | 0.00 | 0.00 | 0.00 | 100 | 1018.2 |
| 20260505232242 | 69 | 225 | 2.6 | 7.0 | 0.00 | 0.00 | 0.00 | 100 | 1018.1 |
| 20260505232141 | 69 | 225 | 2.6 | 7.0 | 0.00 | 0.00 | 0.00 | 100 | 1018.2 |
| 20260505232040 | 69 | 225 | 2.6 | 7.0 | 0.00 | 0.00 | 0.00 | 100 | 1018.1 |
| 20260505231837 | 70 | 225 | 2.6 | 7.0 | 0.00 | 0.00 | 0.00 | 100 | 1018.2 |
| 20260505231736 | 70 | 221 | 2.6 | 7.0 | 0.00 | 0.00 | 0.00 | 100 | 1018.2 |
| 20260505231637 | 70 | 221 | 2.6 | 7.0 | 0.00 | 0.00 | 0.00 | 100 | 1018.1 |
| 20260505231537 | 70 | 221 | 2.6 | 7.0 | 0.00 | 0.00 | 0.00 | 100 | 1018.1 |
| 20260505231334 | 70 | 218 | 2.6 | 7.0 | 0.00 | 0.00 | 0.00 | 100 | 1018.2 |
| 20260505231234 | 70 | 217 | 2.6 | 7.0 | 0.00 | 0.00 | 0.00 | 100 | 1018.2 |
| 20260505231133 | 70 | 222 | 2.6 | 7.0 | 0.00 | 0.00 | 0.00 | 100 | 1018.2 |
| 20260505231034 | 70 | 222 | 3.5 | 7.0 | 0.00 | 0.00 | 0.00 | 100 | 1018.1 |
| 20260505230832 | 70 | 222 | 3.5 | 7.0 | 0.00 | 0.00 | 0.00 | 100 | 1018.2 |
| 20260505230729 | 70 | 222 | 3.5 | 7.0 | 0.00 | 0.00 | 0.00 | 100 | 1018.2 |
| 20260505230629 | 70 | 222 | 2.6 | 7.0 | 0.00 | 0.00 | 0.00 | 100 | 1018.1 |
| 20260505230529 | 70 | 219 | 2.6 | 7.0 | 0.00 | 0.00 | 0.00 | 100 | 1018.2 |
| 20260505230329 | 70 | 207 | 3.5 | 7.0 | 0.00 | 0.00 | 0.00 | 100 | 1018.3 |
| 20260505230230 | 70 | 207 | 3.5 | 7.8 | 0.00 | 0.00 | 0.00 | 100 | 1018.2 |
| 20260505230129 | 70 | 223 | 3.5 | 7.8 | 0.00 | 0.00 | 0.00 | 100 | 1018.2 |
| 20260505230038 | 70 | 223 | 2.6 | 7.8 | 0.00 | 0.00 | 0.00 | 100 | 1018.1 |
| 20260505230023 | 70 | 215 | 2.6 | 7.8 | 0.00 | 0.00 | 0.00 | 100 | 1018.2 |
| 20260505225830 | 70 | 215 | 2.6 | 7.8 | 0.00 | 0.00 | 0.00 | 100 | 1018.3 |
| 20260505225731 | 70 | 214 | 2.6 | 7.8 | 0.00 | 0.00 | 0.00 | 100 | 1018.2 |
| 20260505225629 | 70 | 213 | 3.5 | 7.8 | 0.00 | 0.00 | 0.00 | 100 | 1018.2 |
| 20260505225537 | 70 | 213 | 3.5 | 7.8 | 0.00 | 0.00 | 0.00 | 100 | 1018.2 |
| 20260505225521 | 70 | 212 | 3.5 | 7.8 | 0.00 | 0.00 | 0.00 | 100 | 1018.3 |
| 20260505225325 | 71 | 221 | 3.5 | 7.8 | 0.00 | 0.00 | 0.00 | 100 | 1018.3 |
| 20260505225226 | 71 | 220 | 3.5 | 7.0 | 0.00 | 0.00 | 0.00 | 100 | 1018.3 |
| 20260505225124 | 71 | 218 | 3.5 | 7.0 | 0.00 | 0.00 | 0.00 | 100 | 1018.6 |
| 20260505225027 | 71 | 217 | 3.5 | 7.0 | 0.00 | 0.00 | 0.00 | 100 | 1018.4 |
| 20260505224824 | 71 | 215 | 2.6 | 7.0 | 0.00 | 0.00 | 0.00 | 100 | 1018.4 |
| 20260505224723 | 71 | 215 | 3.5 | 7.0 | 0.00 | 0.00 | 0.00 | 100 | 1018.6 |
| 20260505224623 | 71 | 227 | 3.5 | 7.8 | 0.00 | 0.00 | 0.00 | 100 | 1018.6 |
| 20260505224537 | 71 | 227 | 3.5 | 7.8 | 0.00 | 0.00 | 0.00 | 100 | 1018.4 |
| 20260505224522 | 71 | 223 | 2.6 | 7.8 | 0.00 | 0.00 | 0.00 | 100 | 1018.4 |
| 20260505224322 | 71 | 222 | 3.5 | 7.8 | 0.00 | 0.00 | 0.00 | 100 | 1018.4 |
| 20260505224218 | 71 | 223 | 3.5 | 7.8 | 0.00 | 0.00 | 0.00 | 100 | 1018.6 |
| 20260505224120 | 71 | 221 | 3.5 | 7.8 | 0.00 | 0.00 | 0.00 | 100 | 1018.4 |
| 20260505224021 | 71 | 221 | 3.5 | 7.8 | 0.00 | 0.00 | 0.00 | 100 | 1018.4 |
| 20260505223817 | 71 | 221 | 3.5 | 7.8 | 0.00 | 0.00 | 0.00 | 100 | 1018.4 |
| 20260505223715 | 71 | 230 | 3.5 | 7.8 | 0.00 | 0.00 | 0.00 | 100 | 1018.4 |
| 20260505223615 | 71 | 221 | 3.5 | 7.0 | 0.00 | 0.00 | 0.00 | 100 | 1018.4 |
| 20260505223533 | 71 | 227 | 3.5 | 7.0 | 0.00 | 0.00 | 0.00 | 100 | 1018.4 |
| 20260505223517 | 71 | 219 | 3.5 | 7.0 | 0.00 | 0.00 | 0.00 | 100 | 1018.3 |
| 20260505223313 | 71 | 221 | 2.6 | 7.0 | 0.00 | 0.00 | 0.00 | 100 | 1018.3 |
| 20260505223213 | 72 | 225 | 2.6 | 7.0 | 0.00 | 0.00 | 0.00 | 100 | 1018.3 |
| 20260505223113 | 72 | 212 | 2.6 | 7.0 | 0.00 | 0.00 | 0.00 | 100 | 1018.3 |
| 20260505223013 | 72 | 211 | 2.6 | 7.0 | 0.00 | 0.00 | 0.00 | 100 | 1018.3 |
| 20260505222814 | 72 | 213 | 2.6 | 7.0 | 0.00 | 0.00 | 0.00 | 100 | 1018.3 |
| 20260505222714 | 72 | 206 | 2.6 | 5.2 | 0.00 | 0.00 | 0.00 | 100 | 1018.3 |
| 20260505222614 | 72 | 201 | 2.6 | 5.2 | 0.00 | 0.00 | 0.00 | 100 | 1018.3 |
| 20260505222514 | 72 | 199 | 2.6 | 5.2 | 0.00 | 0.00 | 0.00 | 100 | 1018.3 |
| 20260505222313 | 72 | 214 | 2.6 | 5.2 | 0.00 | 0.00 | 0.00 | 100 | 1018.3 |
| 20260505222211 | 72 | 213 | 2.6 | 5.2 | 0.00 | 0.00 | 0.00 | 100 | 1018.2 |
| 20260505222111 | 72 | 194 | 2.6 | 7.8 | 0.00 | 0.00 | 0.00 | 100 | 1018.2 |
| 20260505222012 | 72 | 165 | 2.6 | 7.8 | 0.00 | 0.00 | 0.00 | 100 | 1018.3 |
| 20260505221812 | 72 | 221 | 2.6 | 7.8 | 0.00 | 0.00 | 0.00 | 100 | 1018.3 |
| 20260505221711 | 72 | 221 | 2.6 | 7.8 | 0.00 | 0.00 | 0.00 | 100 | 1018.2 |
| 20260505221610 | 72 | 221 | 1.7 | 7.8 | 0.00 | 0.00 | 0.00 | 100 | 1018.3 |
| 20260505221511 | 72 | 221 | 1.7 | 7.8 | 0.00 | 0.00 | 0.00 | 100 | 1018.3 |
| 20260505221311 | 73 | 205 | 1.7 | 7.8 | 0.00 | 0.00 | 0.00 | 100 | 1018.2 |
| 20260505221212 | 73 | 214 | 1.7 | 7.8 | 0.00 | 0.00 | 0.00 | 100 | 1018.3 |
| 20260505221109 | 73 | 244 | 1.7 | 5.2 | 0.00 | 0.00 | 0.00 | 100 | 1018.2 |
| 20260505221009 | 73 | 222 | 1.7 | 5.2 | 0.00 | 0.00 | 0.00 | 100 | 1018.1 |
| 20260505220809 | 73 | 225 | 2.6 | 5.2 | 0.00 | 0.00 | 0.00 | 100 | 1018.2 |
| 20260505220709 | 73 | 214 | 2.6 | 5.2 | 0.00 | 0.00 | 0.00 | 100 | 1018.2 |
| 20260505220610 | 73 | 200 | 2.6 | 5.2 | 0.00 | 0.00 | 0.00 | 100 | 1018.2 |
| 20260505220510 | 73 | 199 | 2.6 | 7.0 | 0.00 | 0.00 | 0.00 | 100 | 1018.1 |
| 20260505220309 | 73 | 198 | 2.6 | 7.0 | 0.00 | 0.00 | 0.00 | 100 | 1018.2 |
| 20260505220209 | 73 | 145 | 2.6 | 7.0 | 0.00 | 0.00 | 0.00 | 100 | 1018.2 |
| 20260505220109 | 73 | 223 | 2.6 | 7.0 | 0.00 | 0.00 | 0.00 | 100 | 1018.2 |
| 20260505220008 | 73 | 223 | 2.6 | 7.0 | 0.00 | 0.00 | 0.00 | 100 | 1018.2 |
| 20260505215810 | 73 | 213 | 2.6 | 7.0 | 0.00 | 0.00 | 0.00 | 100 | 1018.2 |
| 20260505215710 | 73 | 219 | 2.6 | 7.0 | 0.00 | 0.00 | 0.00 | 100 | 1018.2 |
| 20260505215607 | 73 | 218 | 2.6 | 7.0 | 0.00 | 0.00 | 0.00 | 100 | 1018.1 |
| 20260505215527 | 73 | 98 | 2.6 | 7.0 | 0.00 | 0.00 | 0.00 | 100 | 1018.2 |
| 20260505215511 | 73 | 128 | 2.6 | 7.8 | 0.00 | 0.00 | 0.00 | 100 | 1018.2 |
| 20260505215308 | 73 | 203 | 2.6 | 7.8 | 0.00 | 0.00 | 0.00 | 100 | 1018.2 |
| 20260505215207 | 73 | 202 | 2.6 | 7.8 | 0.00 | 0.00 | 0.00 | 100 | 1018.2 |
| 20260505215108 | 73 | 202 | 3.5 | 7.8 | 0.00 | 0.00 | 0.00 | 100 | 1018.1 |
| 20260505215008 | 72 | 215 | 3.5 | 7.8 | 0.00 | 0.00 | 0.00 | 100 | 1018.2 |
| 20260505214808 | 72 | 215 | 3.5 | 7.8 | 0.00 | 0.00 | 0.00 | 100 | 1018.2 |
| 20260505214708 | 72 | 215 | 3.5 | 7.8 | 0.00 | 0.00 | 0.00 | 100 | 1018.2 |
| 20260505214609 | 73 | 226 | 3.5 | 7.8 | 0.00 | 0.00 | 0.00 | 100 | 1018.2 |
| 20260505214507 | 73 | 219 | 3.5 | 7.8 | 0.00 | 0.00 | 0.00 | 100 | 1018.3 |
| 20260505214307 | 73 | 217 | 3.5 | 7.0 | 0.00 | 0.00 | 0.00 | 100 | 1018.3 |
| 20260505214207 | 73 | 213 | 3.5 | 7.8 | 0.00 | 0.00 | 0.00 | 100 | 1018.3 |
| 20260505214108 | 73 | 213 | 3.5 | 7.8 | 0.00 | 0.00 | 0.00 | 100 | 1018.3 |
| 20260505214006 | 73 | 215 | 3.5 | 7.8 | 0.00 | 0.00 | 0.00 | 100 | 1018.3 |
| 20260505213806 | 73 | 223 | 3.5 | 7.8 | 0.00 | 0.00 | 0.00 | 100 | 1018.3 |
| 20260505213707 | 73 | 226 | 3.5 | 7.8 | 0.00 | 0.00 | 0.00 | 100 | 1018.3 |
| 20260505213608 | 73 | 223 | 3.5 | 7.8 | 0.00 | 0.00 | 0.00 | 100 | 1018.3 |
| 20260505213508 | 73 | 224 | 3.5 | 7.8 | 0.00 | 0.00 | 0.00 | 100 | 1018.3 |
| 20260505213307 | 73 | 206 | 3.5 | 7.8 | 0.00 | 0.00 | 0.00 | 100 | 1018.3 |
| 20260505213208 | 73 | 223 | 3.5 | 7.8 | 0.00 | 0.00 | 0.00 | 100 | 1018.3 |
| 20260505213108 | 73 | 213 | 3.5 | 7.8 | 0.00 | 0.00 | 0.00 | 100 | 1018.2 |
| 20260505213026 | 73 | 213 | 3.5 | 7.8 | 0.00 | 0.00 | 0.00 | 100 | 1018.1 |
| 20260505213011 | 73 | 211 | 3.5 | 7.8 | 0.00 | 0.00 | 0.00 | 100 | 1018.1 |
| 20260505212806 | 73 | 221 | 3.5 | 7.8 | 0.00 | 0.00 | 0.00 | 100 | 1018.0 |
| 20260505212708 | 73 | 177 | 3.5 | 7.8 | 0.00 | 0.00 | 0.00 | 100 | 1018.1 |
| 20260505212607 | 73 | 219 | 3.5 | 7.8 | 0.00 | 0.00 | 0.00 | 100 | 1018.0 |
| 20260505212508 | 73 | 215 | 3.5 | 7.8 | 0.00 | 0.00 | 0.00 | 100 | 1018.0 |
| 20260505212306 | 73 | 215 | 3.5 | 7.8 | 0.00 | 0.00 | 0.00 | 100 | 1018.0 |
| 20260505212208 | 73 | 214 | 3.5 | 7.8 | 0.00 | 0.00 | 0.00 | 100 | 1018.0 |
| 20260505212109 | 73 | 224 | 3.5 | 7.8 | 0.00 | 0.00 | 0.00 | 100 | 1018.0 |
| 20260505212007 | 73 | 235 | 3.5 | 8.7 | 0.00 | 0.00 | 0.00 | 100 | 1018.0 |
| 20260505211910 | 73 | 169 | 3.5 | 8.7 | 0.00 | 0.00 | 0.00 | 100 | 1018.0 |
| 20260505211807 | 73 | 173 | 3.5 | 8.7 | 0.00 | 0.00 | 0.00 | 100 | 1018.0 |
| 20260505211707 | 73 | 221 | 3.5 | 8.7 | 0.00 | 0.00 | 0.00 | 100 | 1018.0 |
| 20260505211608 | 73 | 175 | 3.5 | 8.7 | 0.00 | 0.00 | 0.00 | 100 | 1018.0 |
| 20260505211507 | 73 | 221 | 3.5 | 8.7 | 0.00 | 0.00 | 0.00 | 100 | 1018.0 |
| 20260505211410 | 73 | 212 | 3.5 | 8.7 | 0.00 | 0.00 | 0.00 | 100 | 1018.0 |
| 20260505211306 | 73 | 214 | 3.5 | 8.7 | 0.00 | 0.00 | 0.00 | 100 | 1018.1 |
| 20260505211207 | 73 | 213 | 3.5 | 8.7 | 0.00 | 0.00 | 0.00 | 100 | 1018.0 |
| 20260505211107 | 73 | 235 | 3.5 | 8.7 | 0.00 | 0.00 | 0.00 | 100 | 1018.1 |
| 20260505211006 | 73 | 219 | 3.5 | 8.7 | 0.00 | 0.00 | 0.00 | 100 | 1018.1 |
| 20260505210808 | 73 | 167 | 3.5 | 8.7 | 0.00 | 0.00 | 0.00 | 100 | 1018.0 |
| 20260505210707 | 73 | 166 | 3.5 | 8.7 | 0.00 | 0.00 | 0.00 | 100 | 1018.0 |
| 20260505210606 | 73 | 113 | 3.5 | 8.7 | 0.00 | 0.00 | 0.00 | 100 | 1017.9 |
| 20260505210508 | 73 | 194 | 3.5 | 7.8 | 0.00 | 0.00 | 0.00 | 100 | 1018.0 |
| 20260505210410 | 73 | 194 | 3.5 | 7.8 | 0.00 | 0.00 | 0.00 | 100 | 1018.0 |
| 20260505210307 | 73 | 215 | 3.5 | 7.8 | 0.00 | 0.00 | 0.00 | 100 | 1018.0 |
| 20260505210208 | 73 | 222 | 4.3 | 7.8 | 0.00 | 0.00 | 0.00 | 100 | 1018.0 |
| 20260505210108 | 72 | 217 | 4.3 | 7.8 | 0.00 | 0.00 | 0.00 | 100 | 1017.9 |
| 20260505210008 | 72 | 217 | 4.3 | 7.8 | 0.00 | 0.00 | 0.00 | 100 | 1018.0 |
| 20260505205808 | 72 | 223 | 3.5 | 10.4 | 0.00 | 0.00 | 0.00 | 100 | 1018.0 |
| 20260505205707 | 73 | 229 | 3.5 | 10.4 | 0.00 | 0.00 | 0.00 | 100 | 1017.8 |
| 20260505205606 | 73 | 220 | 3.5 | 10.4 | 0.00 | 0.00 | 0.00 | 100 | 1017.9 |
| 20260505205507 | 72 | 221 | 3.5 | 10.4 | 0.00 | 0.00 | 0.00 | 100 | 1017.8 |
| 20260505205307 | 73 | 219 | 3.5 | 10.4 | 0.00 | 0.00 | 0.00 | 100 | 1017.9 |
| 20260505205207 | 73 | 214 | 3.5 | 10.4 | 0.00 | 0.00 | 0.00 | 100 | 1017.9 |
| 20260505205108 | 73 | 211 | 3.5 | 10.4 | 0.00 | 0.00 | 0.00 | 100 | 1017.9 |
| 20260505205007 | 73 | 216 | 3.5 | 10.4 | 0.00 | 0.00 | 0.00 | 100 | 1018.0 |
| 20260505204806 | 73 | 198 | 3.5 | 10.4 | 0.00 | 0.00 | 0.00 | 100 | 1017.9 |
| 20260505204707 | 73 | 134 | 3.5 | 10.4 | 0.00 | 0.00 | 0.00 | 100 | 1018.0 |
| 20260505204608 | 73 | 213 | 3.5 | 10.4 | 0.00 | 0.00 | 0.00 | 100 | 1018.1 |
| 20260505204506 | 73 | 220 | 3.5 | 10.4 | 0.00 | 0.00 | 0.00 | 100 | 1018.1 |
| 20260505204307 | 73 | 185 | 3.5 | 10.4 | 0.00 | 0.00 | 0.00 | 100 | 1018.1 |
| 20260505204207 | 73 | 168 | 3.5 | 10.4 | 0.00 | 0.00 | 0.00 | 100 | 1018.2 |
| 20260505204106 | 73 | 216 | 3.5 | 10.4 | 0.00 | 0.00 | 0.00 | 100 | 1018.2 |
| 20260505204026 | 73 | 118 | 3.5 | 10.4 | 0.00 | 0.00 | 0.00 | 100 | 1018.1 |
| 20260505204010 | 73 | 207 | 3.5 | 9.6 | 0.00 | 0.00 | 0.00 | 100 | 1018.1 |
| 20260505203807 | 74 | 211 | 3.5 | 9.6 | 0.00 | 0.00 | 0.00 | 100 | 1018.1 |
| 20260505203707 | 74 | 209 | 2.6 | 7.8 | 0.00 | 0.00 | 0.00 | 100 | 1018.1 |
| 20260505203606 | 73 | 175 | 2.6 | 7.8 | 0.00 | 0.00 | 0.00 | 100 | 1018.1 |
| 20260505203525 | 73 | 185 | 2.6 | 7.8 | 0.00 | 0.00 | 0.00 | 100 | 1018.2 |
| 20260505203509 | 73 | 49 | 2.6 | 7.8 | 0.00 | 0.00 | 0.00 | 100 | 1018.2 |
| 20260505203308 | 73 | 228 | 2.6 | 7.0 | 0.00 | 0.00 | 0.00 | 100 | 1018.3 |
| 20260505203208 | 73 | 211 | 2.6 | 7.0 | 0.00 | 0.00 | 0.00 | 100 | 1018.4 |
| 20260505203108 | 73 | 227 | 2.6 | 7.0 | 0.00 | 0.00 | 0.00 | 100 | 1018.3 |
| 20260505203008 | 73 | 244 | 2.6 | 7.0 | 0.00 | 0.00 | 0.00 | 100 | 1018.3 |
| 20260505202806 | 73 | 193 | 2.6 | 9.6 | 0.00 | 0.00 | 0.00 | 100 | 1018.4 |
| 20260505202703 | 73 | 217 | 3.5 | 9.6 | 0.00 | 0.00 | 0.00 | 100 | 1018.4 |
| 20260505202604 | 73 | 217 | 3.5 | 9.6 | 0.00 | 0.00 | 0.00 | 100 | 1018.3 |
| 20260505202523 | 73 | 220 | 3.5 | 9.6 | 0.00 | 0.00 | 0.00 | 100 | 1018.4 |
| 20260505202402 | 73 | 221 | 3.5 | 9.6 | 0.00 | 0.00 | 0.00 | 100 | 1018.4 |
| 20260505202302 | 73 | 213 | 3.5 | 9.6 | 0.00 | 0.00 | 0.00 | 100 | 1018.4 |
| 20260505202158 | 74 | 218 | 3.5 | 9.6 | 0.00 | 0.00 | 0.00 | 100 | 1018.3 |
| 20260505202058 | 74 | 214 | 3.5 | 9.6 | 0.00 | 0.00 | 0.00 | 100 | 1018.3 |
| 20260505201959 | 74 | 213 | 3.5 | 9.6 | 0.00 | 0.00 | 0.00 | 100 | 1018.3 |
| 20260505201859 | 74 | 215 | 3.5 | 9.6 | 0.00 | 0.00 | 0.00 | 100 | 1018.3 |
| 20260505201759 | 74 | 225 | 3.5 | 13.0 | 0.00 | 0.00 | 0.00 | 100 | 1018.3 |
| 20260505201659 | 74 | 161 | 3.5 | 13.0 | 0.00 | 0.00 | 0.00 | 100 | 1018.3 |
| 20260505201559 | 73 | 194 | 3.5 | 13.0 | 0.00 | 0.00 | 0.00 | 100 | 1018.3 |
| 20260505201500 | 73 | 212 | 3.5 | 13.0 | 0.00 | 0.00 | 0.00 | 100 | 1018.3 |
| 20260505201359 | 73 | 210 | 3.5 | 13.0 | 0.00 | 0.00 | 0.00 | 100 | 1018.4 |
| 20260505201256 | 73 | 210 | 3.5 | 13.0 | 0.00 | 0.00 | 0.00 | 100 | 1018.4 |
| 20260505201155 | 73 | 205 | 3.5 | 13.0 | 0.00 | 0.00 | 0.00 | 100 | 1018.3 |
| 20260505201055 | 73 | 185 | 3.5 | 13.0 | 0.00 | 0.00 | 0.00 | 100 | 1018.3 |
| 20260505200953 | 73 | 202 | 3.5 | 13.0 | 0.00 | 0.00 | 0.00 | 100 | 1018.4 |
| 20260505200853 | 73 | 108 | 3.5 | 13.0 | 0.00 | 0.00 | 0.00 | 100 | 1018.4 |
| 20260505200753 | 73 | 224 | 3.5 | 9.6 | 0.00 | 0.00 | 0.00 | 100 | 1018.4 |
| 20260505200651 | 73 | 225 | 3.5 | 9.6 | 0.00 | 0.00 | 0.00 | 100 | 1018.4 |
| 20260505200550 | 73 | 130 | 3.5 | 9.6 | 0.00 | 0.00 | 0.00 | 100 | 1018.6 |
| 20260505200451 | 73 | 178 | 3.5 | 9.6 | 0.00 | 0.00 | 0.00 | 100 | 1018.6 |
| 20260505200353 | 74 | 222 | 3.5 | 9.6 | 0.00 | 0.00 | 0.00 | 100 | 1018.4 |
| 20260505200246 | 74 | 222 | 3.5 | 9.6 | 0.00 | 0.00 | 0.00 | 100 | 1018.4 |
| 20260505200145 | 74 | 163 | 3.5 | 9.6 | 0.00 | 0.00 | 0.00 | 100 | 1018.4 |
| 20260505200043 | 74 | 155 | 3.5 | 9.6 | 0.00 | 0.00 | 0.00 | 100 | 1018.6 |
| 20260505200015 | 74 | 195 | 3.5 | 9.6 | 0.00 | 0.00 | 0.00 | 100 | 1018.4 |
| 20260505195844 | 74 | 148 | 3.5 | 7.8 | 0.00 | 0.00 | 0.00 | 100 | 1018.6 |
| 20260505195743 | 74 | 179 | 3.5 | 7.8 | 0.00 | 0.00 | 0.00 | 100 | 1018.6 |
| 20260505195643 | 74 | 196 | 3.5 | 7.8 | 0.00 | 0.00 | 0.00 | 100 | 1018.6 |
| 20260505195542 | 74 | 210 | 3.5 | 7.8 | 0.00 | 0.00 | 0.00 | 100 | 1018.7 |
| 20260505195442 | 74 | 199 | 3.5 | 7.8 | 0.00 | 0.00 | 0.00 | 100 | 1018.7 |
| 20260505195343 | 74 | 212 | 2.6 | 7.8 | 0.00 | 0.00 | 0.00 | 100 | 1018.6 |
| 20260505195243 | 74 | 203 | 2.6 | 7.8 | 0.00 | 0.00 | 0.00 | 100 | 1018.6 |
| 20260505195144 | 74 | 205 | 2.6 | 7.8 | 0.00 | 0.00 | 0.00 | 100 | 1018.6 |
| 20260505195042 | 74 | 170 | 2.6 | 7.8 | 0.00 | 0.00 | 0.00 | 100 | 1018.6 |
| 20260505194941 | 74 | 221 | 2.6 | 7.8 | 0.00 | 0.00 | 0.00 | 100 | 1018.6 |
| 20260505194841 | 73 | 218 | 2.6 | 8.7 | 0.00 | 0.00 | 0.00 | 100 | 1018.4 |
| 20260505194740 | 73 | 144 | 3.5 | 8.7 | 0.00 | 0.00 | 0.00 | 100 | 1018.8 |
| 20260505194640 | 73 | 215 | 3.5 | 8.7 | 0.00 | 0.00 | 0.00 | 100 | 1018.7 |
| 20260505194536 | 73 | 195 | 3.5 | 8.7 | 0.00 | 0.00 | 0.00 | 100 | 1018.8 |
| 20260505194434 | 73 | 215 | 2.6 | 8.7 | 0.00 | 0.00 | 0.00 | 100 | 1018.7 |
| 20260505194334 | 73 | 223 | 3.5 | 8.7 | 0.00 | 0.00 | 0.00 | 100 | 1018.7 |
| 20260505194232 | 73 | 137 | 3.5 | 8.7 | 0.00 | 0.00 | 0.00 | 100 | 1018.7 |
| 20260505194132 | 73 | 207 | 3.5 | 8.7 | 0.00 | 0.00 | 0.00 | 100 | 1018.7 |
| 20260505194028 | 73 | 189 | 3.5 | 8.7 | 0.00 | 0.00 | 0.00 | 100 | 1018.7 |
| 20260505193930 | 73 | 212 | 3.5 | 8.7 | 0.00 | 0.00 | 0.00 | 100 | 1018.8 |
| 20260505193828 | 74 | 224 | 2.6 | 7.8 | 0.00 | 0.00 | 0.00 | 100 | 1018.8 |
| 20260505193726 | 74 | 227 | 2.6 | 7.8 | 0.00 | 0.00 | 0.00 | 100 | 1018.7 |
| 20260505193626 | 74 | 220 | 2.6 | 7.0 | 0.00 | 0.00 | 0.00 | 100 | 1018.8 |
| 20260505193526 | 74 | 140 | 2.6 | 7.0 | 0.00 | 0.00 | 0.00 | 100 | 1018.8 |
| 20260505193510 | 74 | 223 | 2.6 | 7.8 | 0.00 | 0.00 | 0.00 | 100 | 1018.9 |
| 20260505193322 | 74 | 163 | 2.6 | 7.8 | 0.00 | 0.00 | 0.00 | 100 | 1018.9 |
| 20260505193223 | 74 | 217 | 3.5 | 7.8 | 0.00 | 0.00 | 0.00 | 100 | 1018.8 |
| 20260505193122 | 74 | 208 | 3.5 | 8.7 | 0.00 | 0.00 | 0.00 | 100 | 1018.8 |
| 20260505193024 | 74 | 150 | 3.5 | 8.7 | 0.00 | 0.00 | 0.00 | 100 | 1018.8 |
| 20260505193010 | 75 | 89 | 3.5 | 9.6 | 0.00 | 0.00 | 0.00 | 100 | 1018.9 |
| 20260505192819 | 74 | 88 | 3.5 | 9.6 | 0.00 | 0.00 | 0.00 | 100 | 1018.9 |
| 20260505192718 | 74 | 211 | 3.5 | 9.6 | 0.00 | 0.00 | 0.00 | 100 | 1018.9 |
| 20260505192618 | 75 | 211 | 3.5 | 9.6 | 0.00 | 0.00 | 0.00 | 100 | 1018.8 |
| 20260505192522 | 75 | 109 | 3.5 | 9.6 | 0.00 | 0.00 | 0.00 | 100 | 1018.9 |
| 20260505192506 | 74 | 206 | 3.5 | 9.6 | 0.00 | 0.00 | 0.00 | 100 | 1018.9 |
| 20260505192315 | 75 | 178 | 3.5 | 9.6 | 0.00 | 0.00 | 0.00 | 100 | 1018.9 |
| 20260505192215 | 75 | 162 | 3.5 | 9.6 | 0.00 | 0.00 | 0.00 | 100 | 1018.9 |
| 20260505192113 | 74 | 178 | 3.5 | 9.6 | 0.00 | 0.00 | 0.00 | 100 | 1018.9 |
| 20260505192013 | 75 | 215 | 3.5 | 9.6 | 0.00 | 0.00 | 0.00 | 100 | 1018.9 |
| 20260505191912 | 74 | 125 | 2.6 | 8.7 | 0.00 | 0.00 | 0.00 | 100 | 1018.9 |
| 20260505191812 | 74 | 219 | 2.6 | 8.7 | 0.00 | 0.00 | 0.00 | 100 | 1019.0 |
| 20260505191711 | 74 | 220 | 2.6 | 8.7 | 0.00 | 0.00 | 0.00 | 100 | 1018.9 |
| 20260505191609 | 74 | 220 | 3.5 | 8.7 | 0.00 | 0.00 | 0.00 | 100 | 1018.9 |
| 20260505191506 | 74 | 219 | 3.5 | 8.7 | 0.00 | 0.00 | 0.00 | 100 | 1018.9 |
| 20260505191408 | 74 | 225 | 3.5 | 8.7 | 0.00 | 0.00 | 0.00 | 100 | 1018.9 |
| 20260505191304 | 74 | 241 | 3.5 | 12.2 | 0.00 | 0.00 | 0.00 | 100 | 1019.0 |
| 20260505191205 | 74 | 169 | 4.3 | 12.2 | 0.00 | 0.00 | 0.00 | 100 | 1019.0 |
| 20260505191104 | 74 | 175 | 4.3 | 12.2 | 0.00 | 0.00 | 0.00 | 100 | 1018.9 |
| 20260505191003 | 74 | 195 | 4.3 | 12.2 | 0.00 | 0.00 | 0.00 | 100 | 1019.0 |
| 20260505190904 | 74 | 169 | 4.3 | 12.2 | 0.00 | 0.00 | 0.00 | 100 | 1019.0 |
| 20260505190804 | 74 | 220 | 5.2 | 12.2 | 0.00 | 0.00 | 0.00 | 100 | 1019.0 |
| 20260505190704 | 74 | 223 | 5.2 | 12.2 | 0.00 | 0.00 | 0.00 | 100 | 1019.2 |
| 20260505190603 | 73 | 223 | 5.2 | 12.2 | 0.00 | 0.00 | 0.00 | 100 | 1019.1 |
| 20260505190503 | 73 | 223 | 5.2 | 12.2 | 0.00 | 0.00 | 0.00 | 100 | 1019.1 |
| 20260505190404 | 73 | 230 | 5.2 | 12.2 | 0.00 | 0.00 | 0.00 | 100 | 1019.1 |
| 20260505190303 | 74 | 231 | 5.2 | 12.2 | 0.00 | 0.00 | 0.00 | 100 | 1019.1 |
| 20260505190203 | 74 | 219 | 5.2 | 10.4 | 0.00 | 0.00 | 0.00 | 100 | 1019.2 |
| 20260505190104 | 74 | 233 | 4.3 | 10.4 | 0.00 | 0.00 | 0.00 | 100 | 1019.2 |
| 20260505190003 | 74 | 227 | 4.3 | 13.9 | 0.00 | 0.00 | 0.00 | 100 | 1019.3 |
| 20260505185904 | 74 | 225 | 4.3 | 13.9 | 0.00 | 0.00 | 0.00 | 100 | 1019.3 |
| 20260505185802 | 74 | 190 | 5.2 | 13.9 | 0.00 | 0.00 | 0.00 | 100 | 1019.3 |
| 20260505185703 | 74 | 227 | 4.3 | 13.9 | 0.00 | 0.00 | 0.00 | 100 | 1019.3 |
| 20260505185602 | 74 | 223 | 4.3 | 13.9 | 0.00 | 0.00 | 0.00 | 100 | 1019.2 |
| 20260505185502 | 74 | 200 | 4.3 | 13.9 | 0.00 | 0.00 | 0.00 | 100 | 1019.3 |
| 20260505185404 | 74 | 225 | 4.3 | 13.9 | 0.00 | 0.00 | 0.00 | 100 | 1019.3 |
| 20260505185304 | 74 | 225 | 4.3 | 13.9 | 0.00 | 0.00 | 0.00 | 100 | 1019.2 |
| 20260505185202 | 74 | 221 | 4.3 | 13.9 | 0.00 | 0.00 | 0.00 | 100 | 1019.2 |
| 20260505185101 | 74 | 213 | 4.3 | 13.9 | 0.00 | 0.00 | 0.00 | 100 | 1019.2 |
| 20260505185002 | 74 | 211 | 4.3 | 12.2 | 0.00 | 0.00 | 0.00 | 100 | 1019.3 |
| 20260505184802 | 74 | 202 | 4.3 | 7.8 | 0.00 | 0.00 | 0.00 | 100 | 1019.2 |
| 20260505184702 | 74 | 202 | 4.3 | 7.8 | 0.00 | 0.00 | 0.00 | 100 | 1019.2 |
| 20260505184559 | 74 | 195 | 4.3 | 7.8 | 0.00 | 0.00 | 0.00 | 100 | 1019.3 |
| 20260505184458 | 74 | 217 | 4.3 | 7.8 | 0.00 | 0.00 | 0.00 | 100 | 1019.3 |
| 20260505184258 | 74 | 213 | 4.3 | 7.8 | 0.00 | 0.00 | 0.00 | 100 | 1019.3 |
| 20260505184157 | 74 | 215 | 4.3 | 8.7 | 0.00 | 0.00 | 0.00 | 100 | 1019.3 |
| 20260505184056 | 74 | 215 | 4.3 | 8.7 | 0.00 | 0.00 | 0.00 | 100 | 1019.2 |
| 20260505183957 | 75 | 225 | 4.3 | 8.7 | 0.00 | 0.00 | 0.00 | 100 | 1019.2 |
| 20260505183855 | 75 | 138 | 4.3 | 8.7 | 0.00 | 0.00 | 0.00 | 100 | 1019.3 |
| 20260505183753 | 75 | 225 | 4.3 | 8.7 | 0.00 | 0.00 | 0.00 | 100 | 1019.3 |
| 20260505183654 | 75 | 210 | 4.3 | 8.7 | 0.00 | 0.00 | 0.00 | 100 | 1019.3 |
| 20260505183550 | 74 | 218 | 4.3 | 9.6 | 0.00 | 0.00 | 0.00 | 100 | 1019.3 |
| 20260505183450 | 74 | 226 | 4.3 | 9.6 | 0.00 | 0.00 | 0.00 | 100 | 1019.2 |
| 20260505183346 | 74 | 223 | 4.3 | 9.6 | 0.00 | 0.00 | 0.00 | 100 | 1019.4 |
| 20260505183245 | 74 | 234 | 4.3 | 13.0 | 0.00 | 0.00 | 0.00 | 100 | 1019.3 |
| 20260505183142 | 74 | 225 | 4.3 | 13.0 | 0.00 | 0.00 | 0.00 | 100 | 1019.3 |
| 20260505183042 | 74 | 211 | 5.2 | 13.0 | 0.00 | 0.00 | 0.00 | 100 | 1019.2 |
| 20260505182942 | 74 | 223 | 5.2 | 13.0 | 0.00 | 0.00 | 0.00 | 100 | 1019.3 |
| 20260505182843 | 74 | 219 | 5.2 | 13.0 | 0.00 | 0.00 | 0.00 | 100 | 1019.3 |
| 20260505182642 | 74 | 217 | 4.3 | 13.0 | 0.00 | 0.00 | 0.00 | 100 | 1019.4 |
| 20260505182544 | 74 | 217 | 4.3 | 13.0 | 0.00 | 0.00 | 0.00 | 100 | 1019.3 |
| 20260505182508 | 74 | 201 | 4.3 | 13.0 | 0.00 | 0.00 | 0.00 | 100 | 1019.3 |
| 20260505182344 | 74 | 208 | 4.3 | 13.0 | 0.00 | 0.00 | 0.00 | 100 | 1019.3 |
| 20260505182242 | 74 | 224 | 4.3 | 8.7 | 0.00 | 0.00 | 0.00 | 100 | 1019.4 |
| 20260505182143 | 75 | 227 | 3.5 | 8.7 | 0.00 | 0.00 | 0.00 | 100 | 1019.4 |
| 20260505182043 | 75 | 221 | 3.5 | 8.7 | 0.00 | 0.00 | 0.00 | 100 | 1019.3 |
| 20260505181942 | 75 | 146 | 3.5 | 8.7 | 0.00 | 0.00 | 0.00 | 100 | 1019.3 |
| 20260505181838 | 75 | 207 | 3.5 | 8.7 | 0.00 | 0.00 | 0.00 | 100 | 1019.3 |
| 20260505181740 | 75 | 110 | 3.5 | 8.7 | 0.00 | 0.00 | 0.00 | 100 | 1019.3 |
| 20260505181639 | 75 | 209 | 3.5 | 7.8 | 0.00 | 0.00 | 0.00 | 100 | 1019.3 |
| 20260505181539 | 75 | 208 | 3.5 | 7.8 | 0.00 | 0.00 | 0.00 | 100 | 1019.3 |
| 20260505181507 | 75 | 222 | 3.5 | 11.3 | 0.00 | 0.00 | 0.00 | 100 | 1019.3 |
| 20260505181338 | 75 | 211 | 3.5 | 11.3 | 0.00 | 0.00 | 0.00 | 100 | 1019.3 |
| 20260505181235 | 75 | 207 | 3.5 | 11.3 | 0.00 | 0.00 | 0.00 | 100 | 1019.4 |
| 20260505181134 | 75 | 180 | 3.5 | 11.3 | 0.00 | 0.00 | 0.00 | 100 | 1019.3 |
| 20260505181035 | 75 | 202 | 3.5 | 11.3 | 0.00 | 0.00 | 0.00 | 100 | 1019.3 |
| 20260505180933 | 75 | 227 | 3.5 | 11.3 | 0.00 | 0.00 | 0.00 | 100 | 1019.3 |
| 20260505180833 | 75 | 228 | 3.5 | 11.3 | 0.00 | 0.00 | 0.00 | 100 | 1019.3 |
| 20260505180731 | 74 | 212 | 3.5 | 11.3 | 0.00 | 0.00 | 0.00 | 100 | 1019.3 |
| 20260505180632 | 74 | 211 | 3.5 | 11.3 | 0.00 | 0.00 | 0.00 | 100 | 1019.2 |
| 20260505180532 | 75 | 218 | 3.5 | 11.3 | 0.00 | 0.00 | 0.00 | 100 | 1019.2 |
| 20260505180504 | 75 | 219 | 3.5 | 7.8 | 0.00 | 0.00 | 0.00 | 100 | 1019.2 |
| 20260505180332 | 74 | 211 | 3.5 | 7.8 | 0.00 | 0.00 | 0.00 | 100 | 1019.3 |
| 20260505180230 | 74 | 219 | 3.5 | 7.8 | 0.00 | 0.00 | 0.00 | 100 | 1019.3 |
| 20260505180129 | 74 | 220 | 3.5 | 7.8 | 0.00 | 0.00 | 0.00 | 100 | 1019.3 |
| 20260505180028 | 74 | 221 | 3.5 | 7.8 | 0.00 | 0.00 | 0.00 | 100 | 1019.3 |
| 20260505175930 | 74 | 221 | 3.5 | 7.8 | 0.00 | 0.00 | 0.00 | 100 | 1019.3 |
| 20260505175829 | 75 | 219 | 3.5 | 7.8 | 0.00 | 0.00 | 0.00 | 100 | 1019.3 |
| 20260505175729 | 74 | 86 | 3.5 | 7.8 | 0.00 | 0.00 | 0.00 | 100 | 1019.4 |
| 20260505175628 | 74 | 201 | 3.5 | 7.8 | 0.00 | 0.00 | 0.00 | 100 | 1019.4 |
| 20260505175529 | 74 | 74 | 3.5 | 7.8 | 0.00 | 0.00 | 0.00 | 100 | 1019.4 |
| 20260505175504 | 75 | 225 | 3.5 | 8.7 | 0.00 | 0.00 | 0.00 | 100 | 1019.5 |
| 20260505175329 | 74 | 175 | 3.5 | 10.4 | 0.00 | 0.00 | 0.00 | 100 | 1019.5 |
| 20260505175226 | 74 | 153 | 4.3 | 10.4 | 0.00 | 0.00 | 0.00 | 100 | 1019.6 |
| 20260505175128 | 74 | 209 | 4.3 | 10.4 | 0.00 | 0.00 | 0.00 | 100 | 1019.5 |
| 20260505175025 | 74 | 210 | 4.3 | 10.4 | 0.00 | 0.00 | 0.00 | 100 | 1019.5 |
| 20260505174926 | 74 | 207 | 4.3 | 10.4 | 0.00 | 0.00 | 0.00 | 100 | 1019.5 |
| 20260505174823 | 74 | 179 | 4.3 | 10.4 | 0.00 | 0.00 | 0.00 | 100 | 1019.5 |
| 20260505174721 | 74 | 211 | 4.3 | 10.4 | 0.00 | 0.00 | 0.00 | 100 | 1019.4 |
| 20260505174618 | 74 | 208 | 4.3 | 10.4 | 0.00 | 0.00 | 0.00 | 100 | 1019.5 |
| 20260505174518 | 74 | 192 | 4.3 | 10.4 | 0.00 | 0.00 | 0.00 | 100 | 1019.6 |
| 20260505174419 | 74 | 210 | 4.3 | 10.4 | 0.00 | 0.00 | 0.00 | 100 | 1019.4 |
| 20260505174319 | 74 | 220 | 4.3 | 10.4 | 0.00 | 0.00 | 0.00 | 100 | 1019.5 |
| 20260505174216 | 74 | 221 | 4.3 | 10.4 | 0.00 | 0.00 | 0.00 | 100 | 1019.5 |
| 20260505174118 | 74 | 207 | 4.3 | 10.4 | 0.00 | 0.00 | 0.00 | 100 | 1019.4 |
| 20260505174016 | 74 | 192 | 4.3 | 10.4 | 0.00 | 0.00 | 0.00 | 100 | 1019.4 |
| 20260505173914 | 74 | 223 | 4.3 | 10.4 | 0.00 | 0.00 | 0.00 | 100 | 1019.5 |
| 20260505173815 | 74 | 231 | 4.3 | 10.4 | 0.00 | 0.00 | 0.00 | 100 | 1019.5 |
| 20260505173712 | 74 | 219 | 4.3 | 9.6 | 0.00 | 0.00 | 0.00 | 100 | 1019.5 |
| 20260505173611 | 74 | 217 | 4.3 | 9.6 | 0.00 | 0.00 | 0.00 | 100 | 1019.5 |
| 20260505173511 | 74 | 223 | 4.3 | 9.6 | 0.00 | 0.00 | 0.00 | 100 | 1019.5 |
| 20260505173410 | 74 | 228 | 4.3 | 9.6 | 0.00 | 0.00 | 0.00 | 100 | 1019.5 |
| 20260505173311 | 74 | 219 | 4.3 | 9.6 | 0.00 | 0.00 | 0.00 | 100 | 1019.4 |
| 20260505173209 | 74 | 216 | 4.3 | 10.4 | 0.00 | 0.00 | 0.00 | 100 | 1019.5 |
| 20260505173107 | 74 | 221 | 4.3 | 10.4 | 0.00 | 0.00 | 0.00 | 100 | 1019.5 |
| 20260505173008 | 73 | 221 | 4.3 | 10.4 | 0.00 | 0.00 | 0.00 | 100 | 1019.4 |
| 20260505172907 | 73 | 221 | 5.2 | 10.4 | 0.00 | 0.00 | 0.00 | 100 | 1019.4 |
| 20260505172806 | 73 | 223 | 5.2 | 10.4 | 0.00 | 0.00 | 0.00 | 100 | 1019.5 |
| 20260505172706 | 73 | 207 | 5.2 | 10.4 | 0.00 | 0.00 | 0.00 | 100 | 1019.5 |
| 20260505172607 | 74 | 214 | 4.3 | 10.4 | 0.00 | 0.00 | 0.00 | 100 | 1019.5 |
| 20260505172506 | 74 | 225 | 4.3 | 10.4 | 0.00 | 0.00 | 0.00 | 100 | 1019.5 |
| 20260505172406 | 74 | 226 | 4.3 | 10.4 | 0.00 | 0.00 | 0.00 | 100 | 1019.5 |
| 20260505172306 | 74 | 229 | 3.5 | 10.4 | 0.00 | 0.00 | 0.00 | 100 | 1019.4 |
| 20260505172205 | 74 | 213 | 3.5 | 9.6 | 0.00 | 0.00 | 0.00 | 100 | 1019.6 |
| 20260505172106 | 74 | 218 | 3.5 | 9.6 | 0.00 | 0.00 | 0.00 | 100 | 1019.5 |
| 20260505172013 | 74 | 219 | 3.5 | 9.6 | 0.00 | 0.00 | 0.00 | 100 | 1019.5 |
| 20260505171957 | 75 | 222 | 2.6 | 9.6 | 0.00 | 0.00 | 0.00 | 100 | 1019.5 |
| 20260505171806 | 75 | 219 | 2.6 | 9.6 | 0.00 | 0.00 | 0.00 | 100 | 1019.5 |
| 20260505171706 | 75 | 219 | 2.6 | 9.6 | 0.00 | 0.00 | 0.00 | 100 | 1019.5 |
| 20260505171604 | 75 | 219 | 3.5 | 9.6 | 0.00 | 0.00 | 0.00 | 100 | 1019.4 |
| 20260505171502 | 75 | 202 | 3.5 | 9.6 | 0.00 | 0.00 | 0.00 | 100 | 1019.6 |
| 20260505171402 | 74 | 182 | 3.5 | 9.6 | 0.00 | 0.00 | 0.00 | 100 | 1019.5 |
| 20260505171302 | 74 | 112 | 3.5 | 9.6 | 0.00 | 0.00 | 0.00 | 100 | 1019.5 |
| 20260505171204 | 74 | 219 | 4.3 | 9.6 | 0.00 | 0.00 | 0.00 | 100 | 1019.5 |
| 20260505171103 | 74 | 217 | 4.3 | 9.6 | 0.00 | 0.00 | 0.00 | 100 | 1019.6 |
| 20260505171012 | 74 | 219 | 4.3 | 9.6 | 0.00 | 0.00 | 0.00 | 100 | 1019.5 |
| 20260505170957 | 74 | 218 | 4.3 | 9.6 | 0.00 | 0.00 | 0.00 | 100 | 1019.5 |
| 20260505170803 | 74 | 187 | 4.3 | 9.6 | 0.00 | 0.00 | 0.00 | 100 | 1019.5 |
| 20260505170703 | 74 | 233 | 4.3 | 9.6 | 0.00 | 0.00 | 0.00 | 100 | 1019.5 |
| 20260505170603 | 74 | 210 | 4.3 | 9.6 | 0.00 | 0.00 | 0.00 | 100 | 1019.6 |
| 20260505170502 | 74 | 221 | 3.5 | 9.6 | 0.00 | 0.00 | 0.00 | 100 | 1019.5 |
| 20260505170433 | 74 | 159 | 3.5 | 9.6 | 0.00 | 0.00 | 0.00 | 100 | 1019.6 |
| 20260505170300 | 74 | 223 | 3.5 | 9.6 | 0.00 | 0.00 | 0.00 | 100 | 1019.5 |
| 20260505170200 | 74 | 225 | 3.5 | 10.4 | 0.00 | 0.00 | 0.00 | 100 | 1019.5 |
| 20260505170108 | 74 | 209 | 3.5 | 10.4 | 0.00 | 0.00 | 0.00 | 100 | 1019.5 |
| 20260505170000 | 74 | 207 | 3.5 | 10.4 | 0.00 | 0.00 | 0.00 | 100 | 1019.6 |
| 20260505165800 | 74 | 200 | 3.5 | 10.4 | 0.00 | 0.00 | 0.00 | 100 | 1019.6 |
| 20260505165701 | 74 | 216 | 2.6 | 10.4 | 0.00 | 0.00 | 0.00 | 100 | 1019.6 |
| 20260505165601 | 74 | 161 | 2.6 | 10.4 | 0.00 | 0.00 | 0.00 | 100 | 1019.5 |
| 20260505165500 | 74 | 219 | 2.6 | 10.4 | 0.00 | 0.00 | 0.00 | 100 | 1019.6 |
| 20260505165401 | 74 | 194 | 2.6 | 10.4 | 0.00 | 0.00 | 0.00 | 100 | 1019.5 |
| 20260505165300 | 74 | 192 | 2.6 | 10.4 | 0.00 | 0.00 | 0.00 | 100 | 1019.5 |
| 20260505165201 | 74 | 116 | 3.5 | 7.8 | 0.00 | 0.00 | 0.00 | 100 | 1019.7 |
| 20260505165059 | 74 | 215 | 3.5 | 7.8 | 0.00 | 0.00 | 0.00 | 100 | 1019.5 |
| 20260505164959 | 74 | 217 | 3.5 | 7.8 | 0.00 | 0.00 | 0.00 | 100 | 1019.7 |
| 20260505164759 | 73 | 178 | 3.5 | 8.7 | 0.00 | 0.00 | 0.00 | 100 | 1019.7 |
| 20260505164659 | 73 | 175 | 4.3 | 8.7 | 0.00 | 0.00 | 0.00 | 100 | 1019.7 |
| 20260505164559 | 73 | 191 | 4.3 | 8.7 | 0.00 | 0.00 | 0.00 | 100 | 1019.7 |
| 20260505164458 | 73 | 191 | 4.3 | 8.7 | 0.00 | 0.00 | 0.00 | 100 | 1019.7 |
| 20260505164359 | 73 | 222 | 4.3 | 8.7 | 0.00 | 0.00 | 0.00 | 100 | 1019.7 |
| 20260505164258 | 73 | 240 | 4.3 | 8.7 | 0.00 | 0.00 | 0.00 | 100 | 1019.7 |
| 20260505164200 | 73 | 220 | 5.2 | 11.3 | 0.00 | 0.00 | 0.00 | 100 | 1019.6 |
| 20260505164058 | 73 | 179 | 5.2 | 11.3 | 0.00 | 0.00 | 0.00 | 100 | 1019.6 |
| 20260505163959 | 73 | 226 | 5.2 | 11.3 | 0.00 | 0.00 | 0.00 | 100 | 1019.7 |
| 20260505163855 | 73 | 212 | 5.2 | 11.3 | 0.00 | 0.00 | 0.00 | 100 | 1019.7 |
| 20260505163758 | 73 | 210 | 5.2 | 11.3 | 0.00 | 0.00 | 0.00 | 100 | 1019.7 |
| 20260505163657 | 73 | 220 | 5.2 | 11.3 | 0.00 | 0.00 | 0.00 | 100 | 1019.7 |
| 20260505163556 | 73 | 227 | 5.2 | 11.3 | 0.00 | 0.00 | 0.00 | 100 | 1019.7 |
| 20260505163457 | 73 | 0 | 5.2 | 11.3 | 0.00 | 0.00 | 0.00 | 100 | 1019.8 |
| 20260505163357 | 73 | 226 | 5.2 | 11.3 | 0.00 | 0.00 | 0.00 | 100 | 1019.7 |
| 20260505163257 | 73 | 221 | 5.2 | 11.3 | 0.00 | 0.00 | 0.00 | 100 | 1019.7 |
| 20260505163157 | 73 | 217 | 5.2 | 10.4 | 0.00 | 0.00 | 0.00 | 100 | 1019.7 |
| 20260505163056 | 73 | 232 | 4.3 | 10.4 | 0.00 | 0.00 | 0.00 | 100 | 1019.7 |
| 20260505162958 | 73 | 221 | 4.3 | 9.6 | 0.00 | 0.00 | 0.00 | 100 | 1019.7 |
| 20260505162857 | 73 | 219 | 5.2 | 9.6 | 0.00 | 0.00 | 0.00 | 100 | 1019.6 |
| 20260505162757 | 73 | 222 | 4.3 | 9.6 | 0.00 | 0.00 | 0.00 | 100 | 1019.6 |
| 20260505162654 | 72 | 146 | 5.2 | 9.6 | 0.00 | 0.00 | 0.00 | 100 | 1019.7 |
| 20260505162555 | 72 | 227 | 5.2 | 9.6 | 0.00 | 0.00 | 0.00 | 100 | 1019.8 |
| 20260505162510 | 72 | 225 | 5.2 | 9.6 | 0.00 | 0.00 | 0.00 | 100 | 1019.7 |
| 20260505162453 | 72 | 224 | 5.2 | 9.6 | 0.00 | 0.00 | 0.00 | 100 | 1019.7 |
| 20260505162251 | 73 | 225 | 5.2 | 9.6 | 0.00 | 0.00 | 0.00 | 100 | 1019.7 |
| 20260505162152 | 73 | 221 | 5.2 | 9.6 | 0.00 | 0.00 | 0.00 | 100 | 1019.8 |
| 20260505162052 | 73 | 227 | 4.3 | 9.6 | 0.00 | 0.00 | 0.00 | 100 | 1019.8 |
| 20260505162008 | 73 | 224 | 5.2 | 9.6 | 0.00 | 0.00 | 0.00 | 100 | 1019.8 |
| 20260505161953 | 73 | 215 | 4.3 | 9.6 | 0.00 | 0.00 | 0.00 | 100 | 1019.9 |
| 20260505161752 | 73 | 203 | 4.3 | 9.6 | 0.00 | 0.00 | 0.00 | 100 | 1019.9 |
| 20260505161651 | 73 | 232 | 4.3 | 9.6 | 0.00 | 0.00 | 0.00 | 100 | 1020.0 |
| 20260505161553 | 73 | 223 | 4.3 | 9.6 | 0.00 | 0.00 | 0.00 | 100 | 1020.0 |
| 20260505161453 | 73 | 221 | 3.5 | 9.6 | 0.00 | 0.00 | 0.00 | 100 | 1019.9 |
| 20260505161354 | 73 | 225 | 3.5 | 7.8 | 0.00 | 0.00 | 0.00 | 100 | 1020.0 |
| 20260505161252 | 73 | 130 | 3.5 | 7.8 | 0.00 | 0.00 | 0.00 | 100 | 1020.0 |
| 20260505161153 | 73 | 225 | 3.5 | 7.8 | 0.00 | 0.00 | 0.00 | 100 | 1020.0 |
| 20260505161050 | 73 | 215 | 3.5 | 7.0 | 0.00 | 0.00 | 0.00 | 100 | 1020.0 |
| 20260505160950 | 73 | 212 | 3.5 | 9.6 | 0.00 | 0.00 | 0.00 | 100 | 1020.0 |
| 20260505160850 | 73 | 229 | 4.3 | 9.6 | 0.00 | 0.00 | 0.00 | 100 | 1020.0 |
| 20260505160751 | 73 | 223 | 4.3 | 9.6 | 0.00 | 0.00 | 0.00 | 100 | 1020.0 |
| 20260505160650 | 73 | 215 | 4.3 | 9.6 | 0.00 | 0.00 | 0.00 | 100 | 1020.1 |
| 20260505160550 | 73 | 206 | 4.3 | 9.6 | 0.00 | 0.00 | 0.00 | 100 | 1020.1 |
| 20260505160450 | 73 | 183 | 5.2 | 9.6 | 0.00 | 0.00 | 0.00 | 100 | 1020.0 |
| 20260505160249 | 73 | 216 | 6.1 | 10.4 | 0.00 | 0.00 | 0.00 | 100 | 1020.1 |
| 20260505153336 | 73 | 226 | 2.6 | 7.8 | 0.00 | 0.00 | 0.00 | 100 | 1019.9 |
| 20260505153237 | 73 | 225 | 2.6 | 7.8 | 0.00 | 0.00 | 0.00 | 100 | 1019.9 |
| 20260505153136 | 73 | 223 | 2.6 | 7.8 | 0.00 | 0.00 | 0.00 | 100 | 1019.9 |
| 20260505153037 | 73 | 225 | 2.6 | 7.8 | 0.00 | 0.00 | 0.00 | 100 | 1019.9 |
| 20260505152935 | 73 | 214 | 3.5 | 8.7 | 0.00 | 0.00 | 0.00 | 100 | 1019.9 |
| 20260505152833 | 73 | 215 | 3.5 | 9.6 | 0.00 | 0.00 | 0.00 | 100 | 1019.8 |
| 20260505152732 | 73 | 214 | 3.5 | 9.6 | 0.00 | 0.00 | 0.00 | 100 | 1019.9 |
| 20260505152631 | 73 | 101 | 3.5 | 9.6 | 0.00 | 0.00 | 0.00 | 100 | 1019.9 |
| 20260505152530 | 73 | 196 | 3.5 | 9.6 | 0.00 | 0.00 | 0.00 | 100 | 1019.9 |
| 20260505152444 | 72 | 222 | 4.3 | 9.6 | 0.00 | 0.00 | 0.00 | 100 | 1019.9 |
| 20260505152438 | 72 | 222 | 4.3 | 9.6 | 0.00 | 0.00 | 0.00 | 100 | 1019.9 |
| 20260505152433 | 73 | 212 | 4.3 | 9.6 | 0.00 | 0.00 | 0.00 | 100 | 1019.9 |
| 20260505152427 | 72 | 222 | 4.3 | 9.6 | 0.00 | 0.00 | 0.00 | 100 | 1019.9 |
| 20260505152029 | 72 | 223 | 4.3 | 9.6 | 0.00 | 0.00 | 0.00 | 100 | 1019.9 |
| 20260505151954 | 72 | 226 | 4.3 | 9.6 | 0.00 | 0.00 | 0.00 | 100 | 1019.9 |
| 20260505151831 | 72 | 222 | 5.2 | 10.4 | 0.00 | 0.00 | 0.00 | 100 | 1019.9 |
| 20260505151728 | 72 | 224 | 5.2 | 10.4 | 0.00 | 0.00 | 0.00 | 100 | 1020.0 |
| 20260505151626 | 72 | 224 | 5.2 | 10.4 | 0.00 | 0.00 | 0.00 | 100 | 1019.9 |
| 20260505151526 | 72 | 224 | 5.2 | 12.2 | 0.00 | 0.00 | 0.00 | 100 | 1019.9 |
| 20260505151425 | 72 | 224 | 5.2 | 12.2 | 0.00 | 0.00 | 0.00 | 100 | 1019.9 |
| 20260505151324 | 72 | 225 | 5.2 | 12.2 | 0.00 | 0.00 | 0.00 | 100 | 1020.0 |
| 20260505151224 | 72 | 231 | 5.2 | 12.2 | 0.00 | 0.00 | 0.00 | 100 | 1019.9 |
| 20260505151125 | 72 | 213 | 4.3 | 12.2 | 0.00 | 0.00 | 0.00 | 100 | 1020.0 |
| 20260505151024 | 72 | 232 | 4.3 | 12.2 | 0.00 | 0.00 | 0.00 | 100 | 1020.1 |
| 20260505150953 | 72 | 232 | 4.3 | 12.2 | 0.00 | 0.00 | 0.00 | 100 | 1019.9 |
| 20260505150824 | 72 | 227 | 3.5 | 12.2 | 0.00 | 0.00 | 0.00 | 100 | 1020.0 |
| 20260505150724 | 73 | 221 | 3.5 | 12.2 | 0.00 | 0.00 | 0.00 | 100 | 1020.0 |
| 20260505150624 | 73 | 228 | 2.6 | 12.2 | 0.00 | 0.00 | 0.00 | 100 | 1020.0 |
| 20260505150525 | 73 | 229 | 2.6 | 11.3 | 0.00 | 0.00 | 0.00 | 100 | 1020.0 |
| 20260505150423 | 73 | 228 | 2.6 | 6.1 | 0.00 | 0.00 | 0.00 | 100 | 1020.0 |
| 20260505150325 | 73 | 217 | 2.6 | 6.1 | 0.00 | 0.00 | 0.00 | 100 | 1019.9 |
| 20260505150222 | 73 | 217 | 2.6 | 6.1 | 0.00 | 0.00 | 0.00 | 100 | 1019.9 |
| 20260505150122 | 73 | 223 | 2.6 | 6.1 | 0.00 | 0.00 | 0.00 | 100 | 1019.9 |
| 20260505140654 | 72 | 232 | 2.6 | 6.1 | 0.00 | 0.00 | 0.00 | 100 | 1019.7 |
| 20260505140554 | 71 | 232 | 2.6 | 6.1 | 0.00 | 0.00 | 0.00 | 100 | 1019.7 |
| 20260505140454 | 71 | 232 | 2.6 | 7.0 | 0.00 | 0.00 | 0.00 | 100 | 1019.7 |
| 20260505140354 | 71 | 232 | 2.6 | 7.0 | 0.00 | 0.00 | 0.00 | 100 | 1019.7 |
| 20260505140252 | 71 | 224 | 2.6 | 7.0 | 0.00 | 0.00 | 0.00 | 100 | 1019.8 |
| 20260505140152 | 71 | 224 | 3.5 | 7.0 | 0.00 | 0.00 | 0.00 | 100 | 1019.7 |
| 20260505130242 | 69 | 226 | 2.6 | 6.1 | 0.00 | 0.00 | 0.00 | 100 | 1019.6 |
| 20260505130141 | 69 | 225 | 1.7 | 6.1 | 0.00 | 0.00 | 0.00 | 100 | 1019.5 |
| 20260505125041 | 68 | 224 | 1.7 | 4.3 | 0.00 | 0.00 | 0.00 | 100 | 1019.6 |
| 20260505124937 | 68 | 224 | 2.6 | 4.3 | 0.00 | 0.00 | 0.00 | 100 | 1019.6 |
| 20260505124735 | 68 | 224 | 2.6 | 4.3 | 0.00 | 0.00 | 0.00 | 100 | 1019.6 |
| 20260505124634 | 68 | 224 | 2.6 | 4.3 | 0.00 | 0.00 | 0.00 | 100 | 1019.6 |
| 20260505124532 | 68 | 224 | 1.7 | 4.3 | 0.00 | 0.00 | 0.00 | 100 | 1019.7 |
| 20260505124431 | 68 | 224 | 1.7 | 4.3 | 0.00 | 0.00 | 0.00 | 100 | 1019.6 |
| 20260505124226 | 67 | 224 | 1.7 | 3.5 | 0.00 | 0.00 | 0.00 | 100 | 1019.6 |
| 20260505124125 | 67 | 224 | 1.7 | 3.5 | 0.00 | 0.00 | 0.00 | 100 | 1019.6 |
| 20260505124025 | 67 | 224 | 1.7 | 3.5 | 0.00 | 0.00 | 0.00 | 100 | 1019.6 |
| 20260505123925 | 67 | 224 | 1.7 | 3.5 | 0.00 | 0.00 | 0.00 | 100 | 1019.6 |
| 20260505123723 | 67 | 224 | 1.7 | 3.5 | 0.00 | 0.00 | 0.00 | 100 | 1019.6 |
| 20260505123624 | 67 | 224 | 1.7 | 3.5 | 0.00 | 0.00 | 0.00 | 100 | 1019.6 |
| 20260505123524 | 67 | 224 | 1.7 | 3.5 | 0.00 | 0.00 | 0.00 | 100 | 1019.5 |
| 20260505123444 | 66 | 224 | 1.7 | 3.5 | 0.00 | 0.00 | 0.00 | 100 | 1019.6 |
| 20260505123428 | 66 | 224 | 1.7 | 3.5 | 0.00 | 0.00 | 0.00 | 100 | 1019.5 |
| 20260505123224 | 66 | 224 | 1.7 | 3.5 | 0.00 | 0.00 | 0.00 | 100 | 1019.4 |
| 20260505123123 | 66 | 224 | 1.7 | 3.5 | 0.00 | 0.00 | 0.00 | 100 | 1019.5 |
| 20260505123021 | 66 | 224 | 1.7 | 3.5 | 0.00 | 0.00 | 0.00 | 100 | 1019.5 |
| 20260505122918 | 66 | 224 | 0.9 | 3.5 | 0.00 | 0.00 | 0.00 | 100 | 1019.5 |
| 20260505122816 | 65 | 224 | 0.9 | 3.5 | 0.00 | 0.00 | 0.00 | 100 | 1019.5 |
| 20260505122716 | 65 | 224 | 0.9 | 3.5 | 0.00 | 0.00 | 0.00 | 100 | 1019.6 |
| 20260505122615 | 65 | 224 | 0.9 | 2.6 | 0.00 | 0.00 | 0.00 | 100 | 1019.6 |
| 20260505122517 | 65 | 224 | 0.9 | 2.6 | 0.00 | 0.00 | 0.00 | 100 | 1019.6 |
| 20260505122436 | 64 | 224 | 0.9 | 2.6 | 0.00 | 0.00 | 0.00 | 100 | 1019.5 |
| 20260505122317 | 64 | 224 | 0.0 | 2.6 | 0.00 | 0.00 | 0.00 | 100 | 1019.6 |
| 20260505122216 | 64 | 224 | 0.0 | 2.6 | 0.00 | 0.00 | 0.00 | 100 | 1019.6 |
| 20260505122116 | 64 | 224 | 0.0 | 0.0 | 0.00 | 0.00 | 0.00 | 100 | 1019.6 |
| 20260505122016 | 64 | 224 | 0.0 | 0.0 | 0.00 | 0.00 | 0.00 | 100 | 1019.5 |
| 20260505121916 | 64 | 224 | 0.0 | 0.0 | 0.00 | 0.00 | 0.00 | 100 | 1019.5 |
| 20260505121817 | 64 | 224 | 0.0 | 0.0 | 0.00 | 0.00 | 0.00 | 100 | 1019.5 |
| 20260505121717 | 64 | 224 | 0.0 | 0.0 | 0.00 | 0.00 | 0.00 | 100 | 1019.5 |
| 20260505121616 | 64 | 224 | 0.0 | 0.0 | 0.00 | 0.00 | 0.00 | 100 | 1019.6 |
| 20260505121513 | 63 | 224 | 0.0 | 0.0 | 0.00 | 0.00 | 0.00 | 100 | 1019.5 |
| 20260505121413 | 63 | 224 | 0.0 | 0.0 | 0.00 | 0.00 | 0.00 | 100 | 1019.5 |
| 20260505121313 | 63 | 224 | 0.0 | 0.0 | 0.00 | 0.00 | 0.00 | 100 | 1019.5 |
| 20260505121210 | 63 | 224 | 0.0 | 0.0 | 0.00 | 0.00 | 0.00 | 100 | 1019.6 |
| 20260505121108 | 62 | 224 | 0.0 | 0.0 | 0.00 | 0.00 | 0.00 | 100 | 1019.7 |
| 20260505121006 | 62 | 224 | 0.0 | 0.0 | 0.00 | 0.00 | 0.00 | 100 | 1019.6 |
| 20260505120906 | 62 | 224 | 0.0 | 0.0 | 0.00 | 0.00 | 0.00 | 100 | 1019.6 |
| 20260505120808 | 62 | 224 | 0.0 | 0.0 | 0.00 | 0.00 | 0.00 | 100 | 1019.6 |
| 20260505120705 | 62 | 224 | 0.0 | 0.0 | 0.00 | 0.00 | 0.00 | 100 | 1019.6 |
| 20260505120602 | 62 | 224 | 0.0 | 0.0 | 0.00 | 0.00 | 0.00 | 100 | 1019.6 |
| 20260505120503 | 61 | 224 | 0.0 | 0.0 | 0.00 | 0.00 | 0.00 | 100 | 1019.5 |
| 20260505120401 | 61 | 224 | 0.0 | 0.0 | 0.00 | 0.00 | 0.00 | 100 | 1019.5 |
| 20260505120300 | 61 | 224 | 0.0 | 0.0 | 0.00 | 0.00 | 0.00 | 100 | 1019.5 |
| 20260505120159 | 60 | 224 | 0.0 | 0.0 | 0.00 | 0.00 | 0.00 | 100 | 1019.5 |
| 20260505120100 | 60 | 224 | 0.0 | 0.0 | 0.00 | 0.00 | 0.00 | 100 | 1019.4 |
| 20260505120001 | 60 | 224 | 0.0 | 0.0 | 0.00 | 0.00 | 0.00 | 100 | 1019.4 |
| 20260505115927 | 60 | 224 | 0.0 | 0.0 | 0.00 | 0.00 | 0.00 | 100 | 1019.4 |
| 20260505115802 | 60 | 224 | 0.0 | 0.0 | 0.00 | 0.00 | 0.00 | 100 | 1019.4 |
| 20260505115701 | 59 | 224 | 0.0 | 0.0 | 0.00 | 0.00 | 0.00 | 100 | 1019.5 |
| 20260505115559 | 59 | 224 | 0.0 | 0.0 | 0.00 | 0.00 | 0.00 | 100 | 1019.4 |
| 20260505115458 | 59 | 224 | 0.0 | 0.0 | 0.00 | 0.00 | 0.00 | 100 | 1019.5 |
| 20260505115359 | 59 | 224 | 0.0 | 0.0 | 0.00 | 0.00 | 0.00 | 100 | 1019.5 |
| 20260505115255 | 58 | 224 | 0.0 | 0.0 | 0.00 | 0.00 | 0.00 | 100 | 1019.4 |
| 20260505115157 | 58 | 224 | 0.0 | 0.0 | 0.00 | 0.00 | 0.00 | 100 | 1019.5 |
| 20260505115054 | 58 | 224 | 0.0 | 0.0 | 0.00 | 0.00 | 0.00 | 100 | 1019.4 |
| 20260505114954 | 58 | 224 | 0.0 | 0.0 | 0.00 | 0.00 | 0.00 | 100 | 1019.4 |
| 20260505114927 | 58 | 224 | 0.0 | 0.0 | 0.00 | 0.00 | 0.00 | 100 | 1019.4 |
| 20260505114752 | 58 | 224 | 0.0 | 0.0 | 0.00 | 0.00 | 0.00 | 100 | 1019.4 |
| 20260505114651 | 57 | 224 | 0.0 | 0.0 | 0.00 | 0.00 | 0.00 | 100 | 1019.4 |
| 20260505114553 | 57 | 224 | 0.0 | 0.0 | 0.00 | 0.00 | 0.00 | 100 | 1019.4 |
| 20260505114453 | 57 | 224 | 0.0 | 0.0 | 0.00 | 0.00 | 0.00 | 100 | 1019.4 |
| 20260505114352 | 57 | 224 | 0.0 | 0.0 | 0.00 | 0.00 | 0.00 | 100 | 1019.4 |
| 20260505114248 | 56 | 225 | 0.0 | 0.0 | 0.00 | 0.00 | 0.00 | 100 | 1019.3 |
| 20260505114149 | 56 | 224 | 0.0 | 0.0 | 0.00 | 0.00 | 0.00 | 100 | 1019.3 |
| 20260505114047 | 56 | 224 | 0.0 | 0.0 | 0.00 | 0.00 | 0.00 | 100 | 1019.3 |
| 20260505113946 | 56 | 224 | 0.0 | 0.0 | 0.00 | 0.00 | 0.00 | 100 | 1019.3 |
| 20260505113845 | 56 | 224 | 0.0 | 0.0 | 0.00 | 0.00 | 0.00 | 100 | 1019.3 |
| 20260505113744 | 56 | 224 | 0.0 | 0.0 | 0.00 | 0.00 | 0.00 | 100 | 1019.3 |
| 20260505113645 | 56 | 224 | 0.0 | 0.0 | 0.00 | 0.00 | 0.00 | 100 | 1019.2 |
| 20260505113544 | 55 | 224 | 0.0 | 0.0 | 0.00 | 0.00 | 0.00 | 100 | 1019.2 |
| 20260505113442 | 55 | 224 | 0.0 | 0.0 | 0.00 | 0.00 | 0.00 | 100 | 1019.3 |
| 20260505113341 | 55 | 224 | 0.0 | 0.0 | 0.00 | 0.00 | 0.00 | 100 | 1019.2 |
| 20260505113241 | 55 | 224 | 0.0 | 0.0 | 0.00 | 0.00 | 0.00 | 100 | 1019.1 |
| 20260505113139 | 55 | 224 | 0.0 | 0.0 | 0.00 | 0.00 | 0.00 | 100 | 1019.3 |
| 20260505113041 | 55 | 224 | 0.0 | 0.0 | 0.00 | 0.00 | 0.00 | 100 | 1019.3 |
| 20260505112937 | 55 | 224 | 0.0 | 0.0 | 0.00 | 0.00 | 0.00 | 100 | 1019.1 |
| 20260505112838 | 54 | 224 | 0.0 | 0.0 | 0.00 | 0.00 | 0.00 | 100 | 1019.2 |
| 20260505112736 | 54 | 224 | 0.0 | 0.0 | 0.00 | 0.00 | 0.00 | 100 | 1019.2 |
| 20260505112635 | 54 | 224 | 0.0 | 0.0 | 0.00 | 0.00 | 0.00 | 100 | 1019.1 |
| 20260505112536 | 54 | 224 | 0.0 | 0.0 | 0.00 | 0.00 | 0.00 | 100 | 1019.1 |
| 20260505112437 | 54 | 224 | 0.0 | 0.0 | 0.00 | 0.00 | 0.00 | 100 | 1019.2 |
| 20260505112423 | 54 | 224 | 0.0 | 0.0 | 0.00 | 0.00 | 0.00 | 100 | 1019.1 |
| 20260505112232 | 54 | 224 | 0.0 | 0.0 | 0.00 | 0.00 | 0.00 | 100 | 1019.0 |
| 20260505112132 | 54 | 224 | 0.0 | 0.0 | 0.00 | 0.00 | 0.00 | 100 | 1019.1 |
| 20260505112032 | 54 | 224 | 0.0 | 0.0 | 0.00 | 0.00 | 0.00 | 100 | 1019.1 |
| 20260505111935 | 53 | 224 | 0.0 | 0.0 | 0.00 | 0.00 | 0.00 | 100 | 1019.0 |
| 20260505111920 | 53 | 224 | 0.0 | 0.0 | 0.00 | 0.00 | 0.00 | 100 | 1019.1 |
| 20260505111729 | 53 | 224 | 0.0 | 0.0 | 0.00 | 0.00 | 0.00 | 100 | 1018.9 |
| 20260505111628 | 53 | 224 | 0.0 | 0.0 | 0.00 | 0.00 | 0.00 | 100 | 1019.0 |
| 20260505111526 | 53 | 224 | 0.0 | 0.0 | 0.00 | 0.00 | 0.00 | 100 | 1019.1 |
| 20260505111423 | 53 | 224 | 0.0 | 0.0 | 0.00 | 0.00 | 0.00 | 100 | 1019.1 |
| 20260505111222 | 53 | 224 | 0.0 | 0.0 | 0.00 | 0.00 | 0.00 | 100 | 1019.0 |
| 20260505111121 | 53 | 224 | 0.0 | 0.0 | 0.00 | 0.00 | 0.00 | 100 | 1019.0 |
| 20260505111023 | 53 | 224 | 0.0 | 0.0 | 0.00 | 0.00 | 0.00 | 100 | 1019.0 |
| 20260505110920 | 53 | 224 | 0.0 | 0.0 | 0.00 | 0.00 | 0.00 | 100 | 1019.0 |
| 20260505110717 | 53 | 224 | 0.0 | 0.0 | 0.00 | 0.00 | 0.00 | 100 | 1018.9 |
| 20260505110617 | 53 | 224 | 0.0 | 0.0 | 0.00 | 0.00 | 0.00 | 100 | 1018.9 |
| 20260505110517 | 53 | 224 | 0.0 | 0.0 | 0.00 | 0.00 | 0.00 | 100 | 1019.0 |
| 20260505110416 | 53 | 224 | 0.0 | 0.0 | 0.00 | 0.00 | 0.00 | 100 | 1019.0 |
| 20260505110215 | 53 | 224 | 0.0 | 0.0 | 0.00 | 0.00 | 0.00 | 100 | 1019.0 |
| 20260505110113 | 52 | 224 | 0.0 | 0.0 | 0.00 | 0.00 | 0.00 | 100 | 1018.9 |
| 20260505102143 | 52 | 224 | 0.0 | 0.0 | 0.00 | 0.00 | 0.00 | 100 | 1018.4 |
| 20260505102041 | 52 | 224 | 0.0 | 0.0 | 0.00 | 0.00 | 0.00 | 100 | 1018.4 |
| 20260505101944 | 52 | 224 | 0.0 | 0.0 | 0.00 | 0.00 | 0.00 | 100 | 1018.4 |
| 20260505101839 | 52 | 224 | 0.0 | 0.0 | 0.00 | 0.00 | 0.00 | 100 | 1018.4 |
| 20260505101740 | 52 | 224 | 0.0 | 0.0 | 0.00 | 0.00 | 0.00 | 100 | 1018.4 |
| 20260505101638 | 52 | 224 | 0.0 | 0.0 | 0.00 | 0.00 | 0.00 | 100 | 1018.4 |
| 20260505101537 | 52 | 224 | 0.0 | 0.0 | 0.00 | 0.00 | 0.00 | 100 | 1018.3 |
| 20260505101439 | 52 | 224 | 0.0 | 0.0 | 0.00 | 0.00 | 0.00 | 100 | 1018.4 |
| 20260505101336 | 52 | 224 | 0.0 | 0.0 | 0.00 | 0.00 | 0.00 | 100 | 1018.3 |
| 20260505101236 | 52 | 224 | 0.0 | 0.0 | 0.00 | 0.00 | 0.00 | 100 | 1018.4 |
| 20260505101134 | 52 | 224 | 0.0 | 0.0 | 0.00 | 0.00 | 0.00 | 100 | 1018.4 |
| 20260505101034 | 52 | 224 | 0.0 | 0.0 | 0.00 | 0.00 | 0.00 | 100 | 1018.3 |
| 20260505100934 | 52 | 224 | 0.0 | 0.0 | 0.00 | 0.00 | 0.00 | 100 | 1018.3 |
| 20260505100919 | 52 | 224 | 0.0 | 0.0 | 0.00 | 0.00 | 0.00 | 100 | 1018.4 |
| 20260505100729 | 52 | 224 | 0.0 | 0.0 | 0.00 | 0.00 | 0.00 | 100 | 1018.4 |
| 20260505100629 | 53 | 224 | 0.0 | 0.0 | 0.00 | 0.00 | 0.00 | 100 | 1018.4 |
| 20260505100529 | 53 | 224 | 0.0 | 0.0 | 0.00 | 0.00 | 0.00 | 100 | 1018.4 |
| 20260505100429 | 53 | 224 | 0.0 | 0.0 | 0.00 | 0.00 | 0.00 | 100 | 1018.4 |
| 20260505100329 | 53 | 224 | 0.0 | 0.0 | 0.00 | 0.00 | 0.00 | 100 | 1018.3 |
| 20260505100229 | 53 | 224 | 0.0 | 0.0 | 0.00 | 0.00 | 0.00 | 100 | 1018.3 |
| 20260505100127 | 53 | 224 | 0.0 | 0.0 | 0.00 | 0.00 | 0.00 | 100 | 1018.3 |
| 20260505100026 | 53 | 224 | 0.0 | 0.0 | 0.00 | 0.00 | 0.00 | 100 | 1018.3 |
| 20260505095926 | 53 | 224 | 0.0 | 0.0 | 0.00 | 0.00 | 0.00 | 100 | 1018.2 |
| 20260505095724 | 53 | 224 | 0.0 | 0.0 | 0.00 | 0.00 | 0.00 | 100 | 1018.2 |
| 20260505095622 | 53 | 224 | 0.0 | 0.0 | 0.00 | 0.00 | 0.00 | 100 | 1018.2 |
| 20260505095521 | 53 | 224 | 0.0 | 0.0 | 0.00 | 0.00 | 0.00 | 100 | 1018.2 |
| 20260505095422 | 53 | 224 | 0.0 | 0.0 | 0.00 | 0.00 | 0.00 | 100 | 1018.2 |
| 20260505095220 | 53 | 224 | 0.0 | 0.0 | 0.00 | 0.00 | 0.00 | 100 | 1018.2 |
| 20260505095117 | 53 | 224 | 0.0 | 0.0 | 0.00 | 0.00 | 0.00 | 100 | 1018.2 |
| 20260505095018 | 53 | 224 | 0.0 | 0.0 | 0.00 | 0.00 | 0.00 | 100 | 1018.1 |
| 20260505094917 | 53 | 224 | 0.0 | 0.0 | 0.00 | 0.00 | 0.00 | 100 | 1018.2 |
| 20260505094716 | 53 | 224 | 0.0 | 0.0 | 0.00 | 0.00 | 0.00 | 100 | 1018.2 |
| 20260505094615 | 53 | 224 | 0.0 | 0.0 | 0.00 | 0.00 | 0.00 | 100 | 1018.1 |
| 20260505094514 | 53 | 224 | 0.0 | 0.0 | 0.00 | 0.00 | 0.00 | 100 | 1018.1 |
| 20260505094414 | 53 | 224 | 0.0 | 0.0 | 0.00 | 0.00 | 0.00 | 100 | 1018.1 |
| 20260505094211 | 53 | 224 | 0.0 | 0.0 | 0.00 | 0.00 | 0.00 | 100 | 1018.0 |
| 20260505094109 | 53 | 224 | 0.0 | 0.0 | 0.00 | 0.00 | 0.00 | 100 | 1018.1 |
| 20260505094009 | 53 | 224 | 0.0 | 0.0 | 0.00 | 0.00 | 0.00 | 100 | 1018.1 |
| 20260505093910 | 53 | 224 | 0.0 | 0.0 | 0.00 | 0.00 | 0.00 | 100 | 1018.0 |
| 20260505093706 | 53 | 224 | 0.0 | 0.0 | 0.00 | 0.00 | 0.00 | 100 | 1018.1 |
| 20260505093606 | 53 | 224 | 0.0 | 0.0 | 0.00 | 0.00 | 0.00 | 100 | 1018.1 |
| 20260505093505 | 53 | 224 | 0.0 | 0.0 | 0.00 | 0.00 | 0.00 | 100 | 1018.1 |
| 20260505093405 | 53 | 224 | 0.0 | 0.0 | 0.00 | 0.00 | 0.00 | 100 | 1018.0 |
| 20260505093305 | 53 | 224 | 0.0 | 0.0 | 0.00 | 0.00 | 0.00 | 100 | 1018.0 |
| 20260505093203 | 53 | 224 | 0.0 | 0.0 | 0.00 | 0.00 | 0.00 | 100 | 1018.0 |
| 20260505093102 | 53 | 224 | 0.0 | 0.0 | 0.00 | 0.00 | 0.00 | 100 | 1018.0 |
| 20260505093001 | 53 | 224 | 0.0 | 0.0 | 0.00 | 0.00 | 0.00 | 100 | 1018.0 |
| 20260505092921 | 53 | 224 | 0.0 | 0.0 | 0.00 | 0.00 | 0.00 | 100 | 1018.0 |
| 20260505092801 | 53 | 224 | 0.0 | 0.0 | 0.00 | 0.00 | 0.00 | 100 | 1018.0 |
| 20260505092701 | 53 | 224 | 0.0 | 0.0 | 0.00 | 0.00 | 0.00 | 100 | 1018.0 |
| 20260505092602 | 53 | 224 | 0.0 | 0.0 | 0.00 | 0.00 | 0.00 | 100 | 1017.9 |
| 20260505092501 | 53 | 224 | 0.0 | 0.0 | 0.00 | 0.00 | 0.00 | 100 | 1017.9 |
| 20260505092401 | 53 | 224 | 0.0 | 0.0 | 0.00 | 0.00 | 0.00 | 100 | 1018.0 |
| 20260505092301 | 53 | 224 | 0.0 | 0.0 | 0.00 | 0.00 | 0.00 | 100 | 1018.0 |
| 20260505092159 | 53 | 224 | 0.0 | 0.0 | 0.00 | 0.00 | 0.00 | 100 | 1017.9 |
| 20260505092059 | 53 | 224 | 0.0 | 0.0 | 0.00 | 0.00 | 0.00 | 100 | 1017.9 |
| 20260505091959 | 53 | 224 | 0.0 | 0.0 | 0.00 | 0.00 | 0.00 | 100 | 1017.9 |
| 20260505091901 | 53 | 224 | 0.0 | 0.0 | 0.00 | 0.00 | 0.00 | 100 | 1018.0 |
| 20260505091802 | 53 | 224 | 0.0 | 0.0 | 0.00 | 0.00 | 0.00 | 100 | 1018.0 |
| 20260505091659 | 53 | 224 | 0.0 | 0.0 | 0.00 | 0.00 | 0.00 | 100 | 1018.0 |
| 20260505091557 | 54 | 224 | 0.0 | 0.0 | 0.00 | 0.00 | 0.00 | 100 | 1017.9 |
| 20260505091455 | 53 | 224 | 0.0 | 0.0 | 0.00 | 0.00 | 0.00 | 100 | 1017.9 |
| 20260505091356 | 54 | 224 | 0.0 | 0.0 | 0.00 | 0.00 | 0.00 | 100 | 1017.9 |
| 20260505091256 | 54 | 224 | 0.0 | 0.0 | 0.00 | 0.00 | 0.00 | 100 | 1017.9 |
| 20260505091155 | 54 | 224 | 0.0 | 0.0 | 0.00 | 0.00 | 0.00 | 100 | 1017.8 |
| 20260505091057 | 54 | 224 | 0.0 | 0.0 | 0.00 | 0.00 | 0.00 | 100 | 1017.8 |
| 20260505090956 | 54 | 224 | 0.0 | 0.0 | 0.00 | 0.00 | 0.00 | 100 | 1017.8 |
| 20260505090920 | 54 | 224 | 0.0 | 0.0 | 0.00 | 0.00 | 0.00 | 100 | 1017.8 |
| 20260505090755 | 54 | 224 | 0.0 | 0.0 | 0.00 | 0.00 | 0.00 | 100 | 1017.8 |
| 20260505090656 | 54 | 224 | 0.0 | 0.0 | 0.00 | 0.00 | 0.00 | 100 | 1017.8 |
| 20260505090553 | 54 | 224 | 0.0 | 0.0 | 0.00 | 0.00 | 0.00 | 100 | 1017.8 |
| 20260505090453 | 54 | 224 | 0.0 | 0.0 | 0.00 | 0.00 | 0.00 | 100 | 1017.8 |
| 20260505090352 | 54 | 224 | 0.0 | 0.0 | 0.00 | 0.00 | 0.00 | 100 | 1017.8 |
| 20260505090251 | 54 | 224 | 0.0 | 0.0 | 0.00 | 0.00 | 0.00 | 100 | 1017.7 |
| 20260505090152 | 54 | 224 | 0.0 | 0.0 | 0.00 | 0.00 | 0.00 | 100 | 1017.8 |
| 20260505090049 | 54 | 224 | 0.0 | 0.0 | 0.00 | 0.00 | 0.00 | 100 | 1017.8 |
| 20260505085949 | 54 | 224 | 0.0 | 0.0 | 0.00 | 0.00 | 0.00 | 100 | 1017.8 |
| 20260505085846 | 54 | 224 | 0.0 | 0.0 | 0.00 | 0.00 | 0.00 | 100 | 1017.7 |
| 20260505085748 | 54 | 224 | 0.0 | 0.0 | 0.00 | 0.00 | 0.00 | 100 | 1017.8 |
| 20260505085647 | 54 | 224 | 0.0 | 0.0 | 0.00 | 0.00 | 0.00 | 100 | 1017.8 |
| 20260505085547 | 54 | 224 | 0.0 | 0.0 | 0.00 | 0.00 | 0.00 | 100 | 1017.8 |
| 20260505085445 | 54 | 224 | 0.0 | 0.0 | 0.00 | 0.00 | 0.00 | 100 | 1017.7 |
| 20260505085417 | 54 | 224 | 0.0 | 0.0 | 0.00 | 0.00 | 0.00 | 100 | 1017.8 |
| 20260505085243 | 54 | 224 | 0.0 | 0.0 | 0.00 | 0.00 | 0.00 | 100 | 1017.7 |
| 20260505085144 | 54 | 224 | 0.0 | 0.0 | 0.00 | 0.00 | 0.00 | 100 | 1017.8 |
| 20260505085044 | 54 | 224 | 0.0 | 0.0 | 0.00 | 0.00 | 0.00 | 100 | 1017.7 |
| 20260505084941 | 54 | 224 | 0.0 | 0.0 | 0.00 | 0.00 | 0.00 | 100 | 1017.8 |
| 20260505084841 | 54 | 224 | 0.0 | 0.0 | 0.00 | 0.00 | 0.00 | 100 | 1017.9 |
| 20260505084739 | 54 | 224 | 0.0 | 0.0 | 0.00 | 0.00 | 0.00 | 100 | 1017.8 |
| 20260505084640 | 54 | 224 | 0.0 | 0.0 | 0.00 | 0.00 | 0.00 | 100 | 1017.9 |
| 20260505084538 | 54 | 224 | 0.0 | 0.0 | 0.00 | 0.00 | 0.00 | 100 | 1017.9 |
| 20260505084439 | 54 | 224 | 0.0 | 0.0 | 0.00 | 0.00 | 0.00 | 100 | 1017.9 |
| 20260505084335 | 54 | 224 | 0.0 | 0.0 | 0.00 | 0.00 | 0.00 | 100 | 1017.8 |
| 20260505084237 | 54 | 224 | 0.0 | 0.0 | 0.00 | 0.00 | 0.00 | 100 | 1017.9 |
| 20260505084135 | 54 | 224 | 0.0 | 0.0 | 0.00 | 0.00 | 0.00 | 100 | 1017.8 |
| 20260505084034 | 54 | 224 | 0.0 | 0.0 | 0.00 | 0.00 | 0.00 | 100 | 1017.7 |
| 20260505083933 | 54 | 224 | 0.0 | 0.0 | 0.00 | 0.00 | 0.00 | 100 | 1017.7 |
| 20260505083832 | 54 | 224 | 0.0 | 0.0 | 0.00 | 0.00 | 0.00 | 100 | 1017.8 |
| 20260505083731 | 54 | 224 | 0.0 | 0.0 | 0.00 | 0.00 | 0.00 | 100 | 1017.8 |
| 20260505083632 | 54 | 224 | 0.0 | 0.0 | 0.00 | 0.00 | 0.00 | 100 | 1017.8 |
| 20260505083529 | 54 | 224 | 0.0 | 0.0 | 0.00 | 0.00 | 0.00 | 100 | 1017.8 |
| 20260505083430 | 54 | 224 | 0.0 | 0.0 | 0.00 | 0.00 | 0.00 | 100 | 1017.7 |
| 20260505083328 | 54 | 224 | 0.0 | 0.0 | 0.00 | 0.00 | 0.00 | 100 | 1017.7 |
| 20260505083227 | 54 | 224 | 0.0 | 0.0 | 0.00 | 0.00 | 0.00 | 100 | 1017.7 |
| 20260505083129 | 54 | 224 | 0.0 | 0.0 | 0.00 | 0.00 | 0.00 | 100 | 1017.7 |
| 20260505083025 | 54 | 224 | 0.0 | 0.0 | 0.00 | 0.00 | 0.00 | 100 | 1017.7 |
| 20260505082925 | 54 | 224 | 0.0 | 0.0 | 0.00 | 0.00 | 0.00 | 100 | 1017.7 |
| 20260505082725 | 54 | 224 | 0.0 | 0.0 | 0.00 | 0.00 | 0.00 | 100 | 1017.7 |
| 20260505082623 | 54 | 224 | 0.0 | 0.0 | 0.00 | 0.00 | 0.00 | 100 | 1017.7 |
| 20260505082522 | 54 | 224 | 0.0 | 0.0 | 0.00 | 0.00 | 0.00 | 100 | 1017.7 |
| 20260505082421 | 55 | 224 | 0.0 | 0.0 | 0.00 | 0.00 | 0.00 | 100 | 1017.7 |
| 20260505082219 | 55 | 224 | 0.0 | 0.0 | 0.00 | 0.00 | 0.00 | 100 | 1017.7 |
| 20260505082119 | 55 | 224 | 0.0 | 0.0 | 0.00 | 0.00 | 0.00 | 100 | 1017.8 |
| 20260505082018 | 55 | 224 | 0.0 | 0.0 | 0.00 | 0.00 | 0.00 | 100 | 1017.7 |
| 20260505081916 | 55 | 224 | 0.0 | 0.0 | 0.00 | 0.00 | 0.00 | 100 | 1017.7 |
| 20260505081717 | 55 | 224 | 0.0 | 0.0 | 0.00 | 0.00 | 0.00 | 100 | 1017.7 |
| 20260505081615 | 55 | 224 | 0.0 | 0.0 | 0.00 | 0.00 | 0.00 | 100 | 1017.7 |
| 20260505081514 | 55 | 224 | 0.0 | 0.0 | 0.00 | 0.00 | 0.00 | 100 | 1017.8 |
| 20260505081413 | 55 | 224 | 0.0 | 0.0 | 0.00 | 0.00 | 0.00 | 100 | 1017.7 |
| 20260505081211 | 55 | 224 | 0.0 | 0.0 | 0.00 | 0.00 | 0.00 | 100 | 1017.8 |
| 20260505081111 | 55 | 224 | 0.0 | 0.0 | 0.00 | 0.00 | 0.00 | 100 | 1017.7 |
| 20260505081009 | 55 | 224 | 0.0 | 0.0 | 0.00 | 0.00 | 0.00 | 100 | 1017.7 |
| 20260505080909 | 55 | 224 | 0.0 | 0.0 | 0.00 | 0.00 | 0.00 | 100 | 1017.8 |
| 20260505080708 | 55 | 224 | 0.0 | 0.0 | 0.00 | 0.00 | 0.00 | 100 | 1017.7 |
| 20260505080607 | 55 | 224 | 0.0 | 0.0 | 0.00 | 0.00 | 0.00 | 100 | 1017.7 |
| 20260505080506 | 55 | 224 | 0.0 | 0.0 | 0.00 | 0.00 | 0.00 | 100 | 1017.8 |
| 20260505080406 | 55 | 224 | 0.0 | 0.0 | 0.00 | 0.00 | 0.00 | 100 | 1017.8 |
| 20260505080203 | 55 | 224 | 0.0 | 0.0 | 0.00 | 0.00 | 0.00 | 100 | 1017.7 |
| 20260505080104 | 55 | 224 | 0.0 | 0.0 | 0.00 | 0.00 | 0.00 | 100 | 1017.5 |
| 20260505080004 | 55 | 224 | 0.0 | 0.0 | 0.00 | 0.00 | 0.00 | 100 | 1017.5 |
| 20260505075904 | 55 | 224 | 0.0 | 0.0 | 0.00 | 0.00 | 0.00 | 100 | 1017.6 |
| 20260505075704 | 55 | 224 | 0.0 | 0.0 | 0.00 | 0.00 | 0.00 | 100 | 1017.5 |
| 20260505075602 | 55 | 224 | 0.0 | 0.0 | 0.00 | 0.00 | 0.00 | 100 | 1017.5 |
| 20260505075501 | 55 | 224 | 0.0 | 0.0 | 0.00 | 0.00 | 0.00 | 100 | 1017.5 |
| 20260505075400 | 55 | 224 | 0.0 | 0.0 | 0.00 | 0.00 | 0.00 | 100 | 1017.6 |
| 20260505075259 | 55 | 224 | 0.0 | 0.0 | 0.00 | 0.00 | 0.00 | 100 | 1017.7 |
| 20260505075200 | 55 | 224 | 0.0 | 0.0 | 0.00 | 0.00 | 0.00 | 100 | 1017.6 |
| 20260505075057 | 55 | 224 | 0.0 | 0.0 | 0.00 | 0.00 | 0.00 | 100 | 1017.7 |
| 20260505074958 | 55 | 224 | 0.0 | 0.0 | 0.00 | 0.00 | 0.00 | 100 | 1017.6 |
| 20260505074917 | 55 | 224 | 0.0 | 0.0 | 0.00 | 0.00 | 0.00 | 100 | 1017.6 |
| 20260505074756 | 55 | 224 | 0.0 | 0.0 | 0.00 | 0.00 | 0.00 | 100 | 1017.6 |
| 20260505074655 | 55 | 224 | 0.0 | 0.0 | 0.00 | 0.00 | 0.00 | 100 | 1017.5 |
| 20260505074552 | 56 | 224 | 0.0 | 0.0 | 0.00 | 0.00 | 0.00 | 100 | 1017.6 |
| 20260505074454 | 56 | 224 | 0.0 | 0.0 | 0.00 | 0.00 | 0.00 | 100 | 1017.6 |
| 20260505074415 | 56 | 224 | 0.0 | 0.0 | 0.00 | 0.00 | 0.00 | 100 | 1017.6 |
| 20260505074252 | 56 | 224 | 0.0 | 0.0 | 0.00 | 0.00 | 0.00 | 100 | 1017.5 |
| 20260505074152 | 56 | 224 | 0.0 | 0.0 | 0.00 | 0.00 | 0.00 | 100 | 1017.5 |
| 20260505074050 | 56 | 224 | 0.0 | 0.0 | 0.00 | 0.00 | 0.00 | 100 | 1017.5 |
| 20260505073949 | 56 | 224 | 0.0 | 0.0 | 0.00 | 0.00 | 0.00 | 100 | 1017.6 |
| 20260505073850 | 56 | 224 | 0.0 | 0.0 | 0.00 | 0.00 | 0.00 | 100 | 1017.5 |
| 20260505073747 | 56 | 224 | 0.0 | 0.0 | 0.00 | 0.00 | 0.00 | 100 | 1017.4 |
| 20260505073648 | 56 | 224 | 0.0 | 0.0 | 0.00 | 0.00 | 0.00 | 100 | 1017.4 |
| 20260505073545 | 56 | 224 | 0.0 | 0.0 | 0.00 | 0.00 | 0.00 | 100 | 1017.5 |
| 20260505073445 | 56 | 224 | 0.0 | 0.0 | 0.00 | 0.00 | 0.00 | 100 | 1017.4 |
| 20260505073346 | 56 | 224 | 0.0 | 0.0 | 0.00 | 0.00 | 0.00 | 100 | 1017.4 |
| 20260505073242 | 56 | 224 | 0.0 | 0.0 | 0.00 | 0.00 | 0.00 | 100 | 1017.4 |
| 20260505073143 | 56 | 224 | 0.0 | 0.0 | 0.00 | 0.00 | 0.00 | 100 | 1017.4 |
| 20260505073044 | 56 | 224 | 0.0 | 0.0 | 0.00 | 0.00 | 0.00 | 100 | 1017.4 |
| 20260505072942 | 56 | 224 | 0.0 | 0.0 | 0.00 | 0.00 | 0.00 | 100 | 1017.4 |
| 20260505072844 | 56 | 224 | 0.0 | 0.0 | 0.00 | 0.00 | 0.00 | 100 | 1017.4 |
| 20260505072743 | 56 | 224 | 0.0 | 0.0 | 0.00 | 0.00 | 0.00 | 100 | 1017.4 |
| 20260505072642 | 56 | 224 | 0.0 | 0.0 | 0.00 | 0.00 | 0.00 | 100 | 1017.4 |
| 20260505072541 | 56 | 224 | 0.0 | 0.0 | 0.00 | 0.00 | 0.00 | 100 | 1017.4 |
| 20260505072441 | 56 | 224 | 0.0 | 0.0 | 0.00 | 0.00 | 0.00 | 100 | 1017.4 |
| 20260505072339 | 56 | 224 | 0.0 | 0.0 | 0.00 | 0.00 | 0.00 | 100 | 1017.4 |
| 20260505072240 | 56 | 224 | 0.0 | 0.0 | 0.00 | 0.00 | 0.00 | 100 | 1017.4 |
| 20260505072137 | 56 | 224 | 0.0 | 0.0 | 0.00 | 0.00 | 0.00 | 100 | 1017.4 |
| 20260505072038 | 56 | 224 | 0.0 | 0.0 | 0.00 | 0.00 | 0.00 | 100 | 1017.4 |
| 20260505071938 | 56 | 224 | 0.0 | 0.0 | 0.00 | 0.00 | 0.00 | 100 | 1017.4 |
| 20260505071835 | 56 | 224 | 0.0 | 0.0 | 0.00 | 0.00 | 0.00 | 100 | 1017.3 |
| 20260505071736 | 56 | 224 | 0.0 | 0.0 | 0.00 | 0.00 | 0.00 | 100 | 1017.3 |
| 20260505071634 | 56 | 224 | 0.0 | 0.0 | 0.00 | 0.00 | 0.00 | 100 | 1017.3 |
| 20260505071533 | 57 | 224 | 0.0 | 0.0 | 0.00 | 0.00 | 0.00 | 100 | 1017.4 |
| 20260505071433 | 57 | 224 | 0.0 | 0.0 | 0.00 | 0.00 | 0.00 | 100 | 1017.3 |
| 20260505071332 | 57 | 224 | 0.0 | 0.0 | 0.00 | 0.00 | 0.00 | 100 | 1017.3 |
| 20260505071230 | 57 | 224 | 0.0 | 0.0 | 0.00 | 0.00 | 0.00 | 100 | 1017.3 |
| 20260505071130 | 57 | 224 | 0.0 | 0.0 | 0.00 | 0.00 | 0.00 | 100 | 1017.3 |
| 20260505071028 | 57 | 224 | 0.0 | 0.0 | 0.00 | 0.00 | 0.00 | 100 | 1017.3 |
| 20260505070928 | 57 | 224 | 0.0 | 0.0 | 0.00 | 0.00 | 0.00 | 100 | 1017.4 |
| 20260505070826 | 57 | 224 | 0.0 | 0.0 | 0.00 | 0.00 | 0.00 | 100 | 1017.3 |
| 20260505070726 | 57 | 224 | 0.0 | 0.0 | 0.00 | 0.00 | 0.00 | 100 | 1017.3 |
| 20260505070625 | 57 | 224 | 0.0 | 0.0 | 0.00 | 0.00 | 0.00 | 100 | 1017.3 |
| 20260505070526 | 57 | 224 | 0.0 | 0.0 | 0.00 | 0.00 | 0.00 | 100 | 1017.3 |
| 20260505070425 | 57 | 224 | 0.0 | 0.0 | 0.00 | 0.00 | 0.00 | 100 | 1017.3 |
| 20260505070324 | 57 | 224 | 0.0 | 0.0 | 0.00 | 0.00 | 0.00 | 100 | 1017.4 |
| 20260505070221 | 57 | 224 | 0.0 | 0.0 | 0.00 | 0.00 | 0.00 | 100 | 1017.5 |
| 20260505070121 | 57 | 224 | 0.0 | 0.0 | 0.00 | 0.00 | 0.00 | 100 | 1017.3 |
| 20260505070021 | 57 | 224 | 0.0 | 0.0 | 0.00 | 0.00 | 0.00 | 100 | 1017.4 |
| 20260505065923 | 57 | 224 | 0.0 | 0.0 | 0.00 | 0.00 | 0.00 | 100 | 1017.5 |
| 20260505065822 | 57 | 224 | 0.0 | 0.0 | 0.00 | 0.00 | 0.00 | 100 | 1017.5 |
| 20260505065720 | 58 | 224 | 0.0 | 0.0 | 0.00 | 0.00 | 0.00 | 100 | 1017.4 |
| 20260505065617 | 58 | 224 | 0.0 | 0.0 | 0.00 | 0.00 | 0.00 | 100 | 1017.5 |
| 20260505065518 | 58 | 224 | 0.0 | 0.0 | 0.00 | 0.00 | 0.00 | 100 | 1017.5 |
| 20260505065417 | 58 | 224 | 0.0 | 0.0 | 0.00 | 0.00 | 0.00 | 100 | 1017.6 |
| 20260505065317 | 58 | 224 | 0.0 | 0.0 | 0.00 | 0.00 | 0.00 | 100 | 1017.6 |
| 20260505065216 | 58 | 224 | 0.0 | 0.0 | 0.00 | 0.00 | 0.00 | 100 | 1017.5 |
| 20260505065115 | 58 | 224 | 0.0 | 0.0 | 0.00 | 0.00 | 0.00 | 100 | 1017.5 |
| 20260505065016 | 58 | 224 | 0.0 | 0.0 | 0.00 | 0.00 | 0.00 | 100 | 1017.5 |
| 20260505064916 | 58 | 224 | 0.0 | 0.0 | 0.00 | 0.00 | 0.00 | 100 | 1017.4 |
| 20260505064816 | 58 | 224 | 0.0 | 0.0 | 0.00 | 0.00 | 0.00 | 100 | 1017.4 |
| 20260505064714 | 58 | 224 | 0.0 | 0.0 | 0.00 | 0.00 | 0.00 | 100 | 1017.5 |
| 20260505064615 | 58 | 224 | 0.0 | 0.0 | 0.00 | 0.00 | 0.00 | 100 | 1017.4 |
| 20260505064515 | 58 | 224 | 0.0 | 0.0 | 0.00 | 0.00 | 0.00 | 100 | 1017.4 |
| 20260505064414 | 58 | 224 | 0.0 | 0.0 | 0.00 | 0.00 | 0.00 | 100 | 1017.4 |
| 20260505064316 | 58 | 224 | 0.0 | 0.0 | 0.00 | 0.00 | 0.00 | 100 | 1017.5 |
| 20260505064216 | 58 | 224 | 0.0 | 0.0 | 0.00 | 0.00 | 0.00 | 100 | 1017.5 |
| 20260505064116 | 58 | 224 | 0.0 | 0.0 | 0.00 | 0.00 | 0.00 | 100 | 1017.5 |
| 20260505064016 | 58 | 224 | 0.0 | 0.0 | 0.00 | 0.00 | 0.00 | 100 | 1017.5 |
| 20260505063915 | 58 | 224 | 0.0 | 0.0 | 0.00 | 0.00 | 0.00 | 100 | 1017.5 |
| 20260505063813 | 58 | 224 | 0.0 | 0.0 | 0.00 | 0.00 | 0.00 | 100 | 1017.5 |
| 20260505063713 | 58 | 224 | 0.0 | 0.0 | 0.00 | 0.00 | 0.00 | 100 | 1017.6 |
| 20260505063614 | 58 | 224 | 0.0 | 0.0 | 0.00 | 0.00 | 0.00 | 100 | 1017.6 |
| 20260505063513 | 58 | 224 | 0.0 | 0.0 | 0.00 | 0.00 | 0.00 | 100 | 1017.5 |
| 20260505063412 | 58 | 224 | 0.0 | 0.0 | 0.00 | 0.00 | 0.00 | 100 | 1017.5 |
| 20260505063312 | 58 | 224 | 0.0 | 0.0 | 0.00 | 0.00 | 0.00 | 100 | 1017.5 |
| 20260505063213 | 58 | 224 | 0.0 | 0.0 | 0.00 | 0.00 | 0.00 | 100 | 1017.6 |
| 20260505063114 | 58 | 224 | 0.0 | 0.0 | 0.00 | 0.00 | 0.00 | 100 | 1017.6 |
| 20260505063014 | 58 | 224 | 0.0 | 0.0 | 0.00 | 0.00 | 0.00 | 100 | 1017.6 |
| 20260505062913 | 58 | 224 | 0.0 | 0.0 | 0.00 | 0.00 | 0.00 | 100 | 1017.6 |
| 20260505062813 | 58 | 224 | 0.0 | 0.0 | 0.00 | 0.00 | 0.00 | 100 | 1017.5 |
| 20260505062714 | 58 | 224 | 0.0 | 0.0 | 0.00 | 0.00 | 0.00 | 100 | 1017.5 |
| 20260505062612 | 59 | 224 | 0.0 | 0.0 | 0.00 | 0.00 | 0.00 | 100 | 1017.5 |
| 20260505062511 | 59 | 224 | 0.0 | 0.0 | 0.00 | 0.00 | 0.00 | 100 | 1017.5 |
| 20260505062411 | 59 | 224 | 0.0 | 0.0 | 0.00 | 0.00 | 0.00 | 100 | 1017.5 |
| 20260505062312 | 59 | 224 | 0.0 | 0.0 | 0.00 | 0.00 | 0.00 | 100 | 1017.5 |
| 20260505062210 | 59 | 224 | 0.0 | 0.0 | 0.00 | 0.00 | 0.00 | 100 | 1017.6 |
| 20260505062111 | 59 | 224 | 0.0 | 0.0 | 0.00 | 0.00 | 0.00 | 100 | 1017.6 |
| 20260505062010 | 59 | 224 | 0.0 | 0.0 | 0.00 | 0.00 | 0.00 | 100 | 1017.4 |
| 20260505061910 | 59 | 224 | 0.0 | 0.0 | 0.00 | 0.00 | 0.00 | 100 | 1017.6 |
| 20260505061811 | 59 | 224 | 0.0 | 0.0 | 0.00 | 0.00 | 0.00 | 100 | 1017.5 |
| 20260505061710 | 59 | 224 | 0.0 | 0.0 | 0.00 | 0.00 | 0.00 | 100 | 1017.7 |
| 20260505061613 | 59 | 224 | 0.0 | 0.0 | 0.00 | 0.00 | 0.00 | 100 | 1017.6 |
| 20260505061512 | 59 | 224 | 0.0 | 0.0 | 0.00 | 0.00 | 0.00 | 100 | 1017.6 |
| 20260505061415 | 59 | 224 | 0.0 | 0.0 | 0.00 | 0.00 | 0.00 | 100 | 1017.6 |
| 20260505061401 | 59 | 224 | 0.0 | 0.0 | 0.00 | 0.00 | 0.00 | 100 | 1017.5 |
| 20260505061209 | 59 | 224 | 0.0 | 0.0 | 0.00 | 0.00 | 0.00 | 100 | 1017.7 |
| 20260505061110 | 59 | 224 | 0.0 | 0.0 | 0.00 | 0.00 | 0.00 | 100 | 1017.7 |
| 20260505061010 | 59 | 224 | 0.0 | 0.0 | 0.00 | 0.00 | 0.00 | 100 | 1017.6 |
| 20260505060914 | 59 | 224 | 0.0 | 0.0 | 0.00 | 0.00 | 0.00 | 100 | 1017.7 |
| 20260505060900 | 59 | 224 | 0.0 | 0.0 | 0.00 | 0.00 | 0.00 | 100 | 1017.7 |
| 20260505060710 | 59 | 224 | 0.0 | 0.0 | 0.00 | 0.00 | 0.00 | 100 | 1017.8 |
| 20260505060609 | 59 | 224 | 0.0 | 0.0 | 0.00 | 0.00 | 0.00 | 100 | 1017.7 |
| 20260505060509 | 59 | 224 | 0.0 | 0.0 | 0.00 | 0.00 | 0.00 | 100 | 1017.8 |
| 20260505060413 | 59 | 224 | 0.0 | 0.0 | 0.00 | 0.00 | 0.00 | 100 | 1017.8 |
| 20260505060358 | 59 | 224 | 0.0 | 0.0 | 0.00 | 0.00 | 0.00 | 100 | 1017.9 |
| 20260505060208 | 59 | 224 | 0.0 | 0.0 | 0.00 | 0.00 | 0.00 | 100 | 1017.9 |
| 20260505060107 | 59 | 224 | 0.0 | 0.0 | 0.00 | 0.00 | 0.00 | 100 | 1017.9 |
| 20260505060008 | 59 | 224 | 0.0 | 0.0 | 0.00 | 0.00 | 0.00 | 100 | 1017.8 |
| 20260505055907 | 59 | 224 | 0.0 | 0.0 | 0.00 | 0.00 | 0.00 | 100 | 1017.9 |
| 20260505055808 | 59 | 224 | 0.0 | 0.0 | 0.00 | 0.00 | 0.00 | 100 | 1017.9 |
| 20260505055707 | 59 | 224 | 0.0 | 0.0 | 0.00 | 0.00 | 0.00 | 100 | 1018.0 |
| 20260505055608 | 60 | 224 | 0.0 | 0.0 | 0.00 | 0.00 | 0.00 | 100 | 1017.9 |
| 20260505055506 | 60 | 224 | 0.0 | 0.0 | 0.00 | 0.00 | 0.00 | 100 | 1018.0 |
| 20260505055408 | 60 | 224 | 0.0 | 0.0 | 0.00 | 0.00 | 0.00 | 100 | 1018.0 |